GFSSW_700_rhum_057.txt.gz
RH
14 15 17 19 19 18 17 20 19 16 13 10 14 9 10 8 9 10 7 17 21 20 21 21 21 17 14 12 24 24 24 21 18 35 45 54 50 57 74 68 74 83 88 74 54
21 23 23 21 20 20 20 21 19 17 12 13 13 9 11 8 7 7 8 19 20 22 23 22 19 26 31 23 22 23 21 20 37 34 48 46 48 50 56 49 65 83 82 79 55
27 26 25 22 19 19 22 22 19 18 11 15 9 11 10 9 10 24 29 25 19 19 17 16 25 32 31 24 21 21 21 21 28 45 42 47 46 44 60 57 63 54 70 56 64
30 28 27 24 20 19 22 23 19 18 12 15 9 12 12 9 44 39 22 16 13 13 12 33 37 32 26 23 22 21 24 29 44 43 43 44 52 58 65 72 88 78 78 63 66
31 29 27 24 21 19 22 23 20 16 14 13 10 13 11 8 35 33 17 17 27 22 17 35 35 29 24 23 23 21 27 35 41 48 48 60 51 53 63 72 86 70 67 67 90
28 28 27 25 22 20 22 23 21 14 15 11 12 13 10 7 12 14 18 32 32 36 26 32 33 31 30 28 30 22 29 36 40 44 53 47 47 52 62 41 62 50 73 77 81
17 23 28 27 25 21 23 23 21 14 16 11 12 12 9 7 14 25 18 32 38 37 40 46 41 35 35 38 31 31 30 35 35 49 58 50 55 61 68 70 73 87 79 87 86
9 16 23 27 27 23 24 23 21 15 14 12 12 11 7 8 13 19 24 37 43 46 36 46 46 38 37 37 27 30 34 38 36 45 52 45 58 66 61 63 77 80 66 77 88
1 8 20 29 31 25 26 23 19 16 13 13 13 10 7 14 17 19 28 39 42 36 29 29 33 36 38 33 30 32 36 33 37 50 37 38 42 58 58 68 70 75 71 83 77
0 2 16 32 33 28 28 23 18 17 14 14 12 8 25 31 34 20 35 39 36 41 34 35 37 36 36 35 33 31 32 32 29 40 29 32 35 54 60 62 62 62 66 69 56
0 1 11 32 37 31 30 22 22 30 23 17 16 22 30 40 42 37 38 36 35 43 37 43 35 38 41 38 33 33 38 28 28 28 32 29 31 42 52 55 60 59 54 57 44
0 1 6 35 39 35 32 21 21 23 12 15 14 16 35 30 34 32 34 37 32 41 44 39 41 39 42 40 37 32 30 37 25 24 23 27 27 31 47 51 45 40 59 51 30
0 1 6 38 44 40 31 22 22 19 20 10 11 8 24 30 24 22 32 32 31 35 49 56 41 41 46 43 43 33 31 25 26 22 15 16 26 34 34 35 41 49 57 68 44
0 0 4 43 43 38 26 23 22 21 19 10 18 20 13 25 35 24 31 29 29 34 39 45 41 40 41 39 40 31 33 24 28 26 22 23 36 32 35 38 46 53 65 62 67
0 0 4 33 44 35 28 24 21 20 85 35 32 30 17 23 30 26 31 30 27 33 36 31 36 36 41 36 36 33 24 27 32 30 32 33 33 33 32 36 37 49 54 57 60
0 1 5 38 53 36 29 28 21 56 88 38 38 30 30 22 31 30 27 27 26 31 33 32 33 32 35 33 33 29 26 27 37 40 46 30 27 36 32 34 43 49 56 64 73
0 1 5 49 47 39 32 33 48 93 29 34 28 28 33 33 29 30 27 27 28 31 30 32 28 28 36 34 31 31 28 43 55 64 60 39 37 31 30 33 32 39 54 67 74
1 1 6 38 47 35 29 54 82 39 31 28 28 29 32 32 32 30 27 29 27 30 28 32 37 37 35 38 32 31 39 37 62 78 55 38 47 39 35 38 42 46 50 56 51
1 4 2 56 46 32 35 82 65 36 28 34 27 30 32 31 31 29 28 25 26 24 27 35 36 40 36 39 33 27 35 36 34 33 39 30 34 46 45 42 34 47 57 58 54
1 3 2 78 44 35 44 57 59 32 40 39 33 26 28 29 30 31 26 25 24 24 23 27 39 41 36 38 35 34 31 42 31 38 42 32 29 41 46 46 41 61 44 43 58
2 27 3 92 44 41 57 73 52 28 45 48 36 28 26 28 28 30 26 26 24 26 24 30 30 32 42 37 32 32 30 26 28 29 56 66 36 41 41 32 13 21 20 21 25
32 69 23 100 58 41 60 41 49 27 42 49 44 36 28 25 26 26 25 27 24 29 34 36 32 45 43 35 36 28 32 38 30 30 32 37 32 30 33 32 21 17 25 29 37
98 97 96 79 84 41 42 39 35 30 43 51 43 38 32 32 29 36 26 26 25 27 32 31 34 33 45 38 35 32 33 27 26 29 35 49 35 30 31 28 26 30 48 54 59
99 100 80 83 66 55 36 38 32 27 52 60 51 41 38 34 29 40 27 29 31 34 34 32 41 37 34 30 26 35 35 34 28 29 31 33 34 33 34 32 35 32 39 47 52
100 96 81 72 71 72 52 43 33 25 61 58 58 46 38 36 32 40 34 36 38 36 35 33 32 38 38 30 31 36 35 39 38 32 34 33 34 33 31 28 30 33 36 37 57
99 96 80 87 72 67 65 55 30 23 54 53 57 44 43 34 35 35 35 42 38 38 33 28 31 30 34 35 44 46 41 38 36 36 34 33 32 31 31 31 36 38 42 44 47
100 98 98 82 96 86 57 57 37 25 56 55 45 49 47 36 37 35 36 38 42 44 34 28 30 38 54 46 42 41 31 32 27 30 33 33 30 30 30 31 31 32 35 35 48

GFSSW_700_rhum_060.txt.gz
RH
15 16 18 20 20 19 16 17 17 17 18 16 11 12 8 9 6 7 8 10 18 18 18 18 22 22 22 17 25 27 31 25 22 33 43 42 42 46 50 58 44 54 67 67 59
21 22 23 24 21 21 17 16 16 18 18 16 12 9 10 9 7 7 18 20 20 20 21 20 22 22 21 23 24 24 24 22 22 38 38 40 35 39 56 62 66 80 75 76 77
28 27 26 25 23 21 19 16 15 18 19 15 12 9 12 10 9 24 23 16 17 18 19 20 29 27 24 20 22 22 22 22 24 34 46 41 32 51 64 63 63 65 74 70 74
31 30 28 25 23 21 19 17 15 18 20 14 13 9 12 11 22 32 21 15 14 12 12 21 38 32 26 23 24 24 24 27 33 41 38 40 51 59 66 66 78 88 79 73 74
24 27 26 24 22 21 19 18 16 19 20 14 13 9 12 10 11 26 18 24 23 21 17 34 32 33 32 32 29 31 33 40 35 36 41 44 51 49 65 66 65 70 90 85 83
16 16 17 18 19 20 18 18 18 20 21 14 12 10 11 9 10 13 16 28 33 25 21 34 34 38 36 32 38 31 38 42 42 42 45 46 48 60 65 46 57 73 68 80 87
5 9 14 15 17 19 19 19 19 21 21 14 11 10 11 8 9 12 22 35 36 37 42 41 38 44 38 35 34 41 30 49 50 44 47 51 55 62 77 56 53 75 86 72 71
1 2 4 10 16 17 20 20 22 22 21 14 10 11 10 7 8 16 26 42 37 36 32 40 42 45 37 38 31 35 42 49 48 40 42 43 56 50 60 72 66 70 82 76 80
0 1 1 3 12 18 21 21 24 23 21 14 10 11 8 16 18 21 36 41 39 37 32 33 34 35 34 34 32 33 33 36 42 32 36 39 52 58 62 63 68 71 68 72 53
0 0 0 1 5 17 23 25 26 23 20 15 10 12 16 36 20 24 38 38 37 40 36 41 37 38 34 36 38 35 36 37 38 32 35 34 39 60 56 65 72 69 67 54 34
0 0 0 0 3 15 28 29 25 21 18 18 12 12 27 29 29 29 35 37 37 36 44 46 41 33 36 36 42 43 39 41 34 34 37 33 32 55 56 65 59 71 69 58 51
0 0 0 0 4 21 32 37 29 24 16 15 10 13 25 26 31 32 34 38 35 33 41 41 41 37 41 45 44 38 43 39 34 32 35 36 31 44 45 56 55 43 40 39 43
0 0 0 1 3 30 41 36 29 24 22 11 9 10 21 24 25 27 34 38 37 33 34 35 38 43 38 38 41 42 40 36 33 28 28 30 38 50 54 58 59 52 48 53 60
0 0 0 0 7 41 44 36 27 22 25 10 9 10 14 32 23 24 32 34 36 33 32 39 39 45 44 40 43 39 36 34 29 22 21 28 35 40 47 52 50 52 54 53 47
1 0 0 1 10 42 39 34 27 23 44 34 18 29 18 15 29 20 30 33 34 28 34 35 35 38 38 36 38 33 35 32 31 34 35 32 31 28 32 35 34 42 53 53 52
1 1 0 0 4 51 41 34 29 33 59 35 35 28 18 16 29 26 31 31 30 32 29 34 35 31 30 32 37 36 32 27 29 35 42 27 37 30 29 27 27 34 35 48 51
1 1 0 1 19 54 42 48 48 96 25 41 33 30 23 19 31 31 31 30 28 29 28 31 37 30 28 32 34 34 33 41 50 58 54 37 40 33 31 31 30 31 37 44 54
1 1 1 1 47 58 44 66 83 29 19 40 33 30 26 24 30 30 30 28 29 28 30 34 34 32 29 34 38 39 33 38 49 61 46 40 41 29 28 28 29 32 37 51 60
1 1 1 1 60 70 45 97 62 23 18 33 31 28 29 29 31 30 30 30 27 27 30 30 36 35 36 39 40 36 33 39 45 45 47 33 33 30 30 31 32 38 38 44 55
1 1 1 4 74 86 46 68 64 24 50 42 33 27 31 32 33 33 31 29 28 26 26 27 35 34 30 35 37 39 36 38 40 40 40 34 32 34 41 40 39 32 45 46 51
1 3 2 16 100 93 67 86 56 21 42 54 44 36 27 29 30 31 32 29 26 25 24 26 27 35 36 33 28 36 35 33 33 33 54 63 36 29 36 42 21 9 14 14 17
2 38 17 30 97 86 71 79 47 20 41 50 49 47 41 26 27 29 30 30 26 27 28 27 28 33 31 30 35 32 33 38 37 35 37 39 34 30 31 30 26 22 17 23 28
7 93 84 34 98 94 70 76 44 24 25 35 49 53 42 32 32 26 28 28 26 29 30 31 37 38 35 31 37 41 36 34 33 32 31 48 35 30 32 33 36 36 26 28 40
87 100 99 62 29 92 83 49 37 23 28 27 43 55 45 38 35 35 28 28 28 29 33 35 34 34 41 31 36 36 36 35 37 32 30 31 29 31 33 32 34 37 39 33 42
100 100 69 78 28 85 100 72 50 30 31 30 40 51 46 43 36 39 33 30 36 30 34 34 33 36 40 36 33 31 34 39 42 41 39 35 34 33 33 34 32 33 40 33 36
98 99 100 60 28 33 96 87 54 31 32 25 40 57 48 49 36 37 35 38 38 37 34 35 35 33 31 36 39 31 36 41 40 38 37 38 36 33 31 31 30 32 37 37 39
100 99 100 69 72 54 52 40 30 34 28 24 46 58 51 48 42 36 36 36 39 39 39 38 35 35 36 33 32 38 28 39 38 37 30 30 36 34 30 34 32 32 38 40 41

GFSSW_700_rhum_066.txt.gz
RH
9 11 13 16 18 20 22 21 19 17 15 12 10 11 11 9 12 10 8 15 14 16 19 20 22 24 19 17 23 31 31 24 25 34 49 45 46 40 38 44 53 64 70 64 62
16 18 19 21 23 25 25 22 20 18 16 13 10 11 11 9 13 11 19 14 14 19 20 23 24 25 28 29 30 30 28 26 23 24 25 46 45 42 44 59 73 73 73 71 70
30 29 28 28 28 28 26 23 21 19 16 13 11 13 12 10 12 17 20 14 13 14 19 22 24 30 35 31 28 30 25 23 26 30 37 47 43 46 53 59 70 75 74 85 86
32 31 31 30 30 29 26 22 20 18 16 14 11 14 12 10 14 16 17 15 15 13 14 18 31 36 29 31 33 27 24 25 30 31 46 44 48 49 53 64 69 73 78 76 84
22 24 24 23 23 22 19 18 18 17 16 14 12 14 12 10 11 10 14 18 19 18 16 35 38 33 32 38 34 25 26 30 36 44 45 51 50 58 63 66 69 78 74 90 88
11 13 14 16 16 16 16 16 17 17 16 15 13 15 12 10 10 9 14 24 21 19 27 38 41 36 35 42 40 32 37 41 42 46 49 53 52 62 49 47 73 79 94 98 87
3 3 4 6 8 10 12 13 15 17 16 16 14 15 12 10 10 10 18 33 28 22 33 41 44 38 35 41 44 45 46 44 46 46 52 55 58 56 48 38 47 55 74 83 86
1 1 2 2 2 4 5 6 8 13 14 17 15 16 12 10 8 10 30 35 36 38 40 39 42 38 35 38 50 50 49 44 47 48 51 53 52 52 52 62 48 36 64 82 98
1 0 1 1 1 1 2 2 3 8 11 17 15 17 12 10 8 15 30 37 38 40 37 36 41 42 34 39 40 39 40 39 42 40 48 45 51 51 58 63 64 40 40 45 78
0 0 0 1 1 1 1 1 3 4 8 16 15 16 14 10 11 16 33 37 38 39 40 42 38 36 34 37 37 40 41 41 39 38 37 36 46 51 57 61 66 66 60 55 38
1 1 0 0 0 1 4 9 4 8 6 14 15 15 16 13 16 20 37 34 36 39 42 44 42 41 36 38 37 36 39 38 38 38 35 35 36 46 57 52 61 57 41 40 40
2 1 1 1 2 0 0 1 3 13 11 14 16 14 18 20 21 31 39 36 37 38 42 42 38 39 37 37 43 41 39 37 34 37 36 34 33 40 45 50 47 49 41 41 35
3 5 3 1 0 1 1 8 8 27 20 10 13 11 15 20 23 29 38 38 36 38 36 34 34 38 40 40 44 42 40 41 40 39 36 34 33 33 37 42 57 53 56 50 37
2 2 2 1 2 0 2 6 25 42 27 11 12 11 12 16 24 28 36 38 33 35 35 35 33 40 41 39 39 39 40 42 39 38 34 35 34 28 28 35 40 44 46 45 48
2 2 2 1 12 1 10 24 45 38 39 17 17 16 12 13 16 29 33 37 33 34 37 32 36 39 39 34 37 37 39 41 38 36 37 37 34 27 25 27 30 33 37 44 50
2 2 2 2 1 2 18 44 53 49 71 19 37 19 12 13 21 22 36 35 34 38 35 32 31 37 37 36 38 38 40 40 40 40 45 35 38 33 29 26 28 27 31 37 46
2 2 2 2 1 5 40 86 75 98 17 22 41 25 19 12 27 31 26 39 36 39 36 31 30 33 32 36 37 39 40 39 47 54 50 39 46 30 29 33 34 36 32 34 40
3 2 2 2 2 2 66 97 99 52 18 35 51 38 32 15 24 35 31 37 35 35 32 31 29 30 32 35 35 38 38 39 43 53 44 37 41 28 29 26 24 27 30 30 32
2 3 3 2 2 4 62 99 84 47 24 26 49 52 41 29 18 34 35 34 33 34 34 30 30 28 35 35 35 36 35 38 43 55 60 37 33 29 22 26 28 29 31 30 29
3 3 3 2 2 8 72 92 86 45 32 31 31 48 43 32 22 28 33 32 33 33 31 29 30 31 32 38 41 40 38 40 40 50 48 38 33 27 22 26 28 36 37 37 32
20 6 3 3 3 37 85 85 84 58 30 63 44 40 43 37 24 27 31 31 32 32 30 29 30 31 31 37 39 30 38 41 41 42 53 63 33 28 27 28 33 17 14 18 22
71 38 14 5 33 10 80 100 59 37 42 62 62 46 41 37 30 26 31 31 30 30 29 29 28 29 29 28 26 26 38 35 41 43 42 45 40 32 30 28 29 28 28 24 22
100 90 60 19 81 10 40 100 74 18 45 46 52 59 59 46 36 30 26 32 28 30 31 30 30 29 29 28 29 32 30 36 41 39 42 53 40 35 35 33 31 30 28 29 29
100 100 98 70 4 16 83 100 100 30 31 44 35 54 61 55 44 34 30 29 28 31 32 31 29 28 30 27 28 31 32 36 41 44 41 38 36 37 35 30 30 33 34 32 33
98 94 95 96 11 11 44 92 100 44 39 34 29 27 44 59 48 45 33 32 31 29 30 32 33 32 29 30 31 33 33 31 37 35 37 37 38 40 35 38 33 34 34 32 29
97 97 95 72 13 19 97 99 91 14 45 30 30 22 27 45 55 46 43 38 30 28 29 31 35 34 34 34 35 36 34 32 32 34 34 34 41 42 36 38 37 35 34 31 29
97 92 97 93 84 90 23 90 95 22 45 33 16 15 22 31 48 47 59 52 49 40 30 32 36 36 40 41 42 41 37 36 35 35 33 37 32 33 32 33 33 28 28 32 30

GFSSW_700_rhum_072.txt.gz
RH
16 10 9 10 10 10 13 16 19 21 21 21 18 15 14 11 10 8 12 14 11 11 15 18 20 21 23 20 18 20 26 20 23 32 28 37 43 40 37 40 43 42 52 61 68
35 31 22 15 14 15 18 20 22 23 23 22 19 16 14 12 12 9 14 13 10 13 15 18 22 23 27 24 26 31 26 22 24 25 29 32 40 47 45 43 42 49 58 65 69
26 32 35 34 30 25 26 27 26 26 24 22 18 16 14 12 12 9 16 12 11 13 13 18 23 25 40 30 31 31 28 27 28 28 31 39 45 46 44 65 79 72 61 67 73
16 19 23 28 31 31 29 28 29 27 24 21 17 16 15 14 16 13 15 12 12 14 13 18 23 30 39 36 36 28 31 26 28 33 36 52 48 52 48 43 37 66 69 74 74
8 12 15 17 21 23 25 26 25 24 22 20 17 16 15 15 13 11 12 13 14 17 16 20 30 38 38 41 37 28 37 31 32 38 40 48 50 59 37 44 35 70 74 80 81
2 4 7 10 11 17 20 20 20 20 20 18 17 16 15 16 14 10 11 14 17 22 23 35 38 35 39 40 40 35 36 40 39 40 44 52 54 53 48 52 34 75 87 85 83
1 1 2 4 6 7 9 14 14 12 17 16 15 14 14 16 15 11 10 15 21 22 32 33 38 34 39 43 45 50 55 44 43 48 58 50 63 66 51 56 34 79 89 95 96
1 1 1 1 2 3 4 5 7 9 10 10 11 9 12 15 15 11 11 18 27 23 26 30 34 36 36 39 45 52 49 38 49 48 53 45 39 46 45 54 47 56 95 98 98
1 1 1 1 1 1 2 2 3 4 7 6 7 5 9 13 14 11 11 25 35 31 33 36 40 46 40 41 42 40 30 32 39 40 51 45 39 48 43 50 69 54 88 82 96
4 1 1 1 1 1 1 1 1 2 4 4 5 4 8 14 14 10 12 32 40 41 41 40 43 45 42 37 31 30 31 35 35 39 43 41 41 42 41 48 60 56 67 71 70
7 3 1 1 1 1 1 0 1 1 2 3 3 11 10 16 15 10 13 36 42 45 45 39 47 43 34 33 34 35 35 35 34 40 39 37 37 47 36 40 49 54 41 57 64
3 5 2 1 1 1 1 1 1 3 5 4 6 14 9 18 16 10 11 38 42 43 47 44 43 41 39 38 40 38 38 36 38 40 38 36 35 38 31 37 49 57 45 40 44
2 3 4 2 1 1 1 1 1 1 3 7 9 8 10 11 15 13 11 34 42 40 44 36 40 41 39 42 42 40 40 40 36 43 35 35 32 31 30 33 36 47 56 43 30
2 2 3 3 2 2 3 4 1 1 12 9 11 20 14 9 14 16 14 22 40 37 37 38 40 38 41 40 44 40 42 42 42 41 29 31 22 26 33 28 30 35 48 44 33
1 2 3 3 2 2 3 6 4 17 23 18 19 22 23 10 18 16 20 25 37 39 42 37 38 34 42 43 43 42 40 44 45 39 36 34 24 23 24 26 28 25 31 40 44
9 2 2 3 3 2 2 3 10 45 31 16 25 22 22 17 22 22 22 29 36 40 35 35 35 36 43 39 41 43 43 49 48 40 32 32 30 21 24 28 33 35 29 30 38
36 8 2 3 4 3 3 4 62 61 40 31 19 29 32 25 27 20 33 41 38 40 37 38 39 42 35 44 39 40 45 37 40 36 32 41 35 26 26 31 29 29 28 34 34
47 38 4 3 5 5 10 40 74 30 44 34 49 53 49 38 39 28 40 38 38 34 31 36 35 40 37 38 35 40 40 34 36 35 28 36 29 25 26 27 24 20 21 26 30
63 52 24 9 9 11 72 96 35 31 47 48 33 57 71 38 38 42 40 35 38 38 30 33 30 33 33 31 39 47 42 40 42 36 38 28 30 24 27 27 26 27 27 32 32
77 72 43 27 29 43 79 40 49 46 42 31 39 46 64 43 39 40 42 39 38 39 33 33 30 33 33 32 36 39 40 41 41 40 37 25 27 24 26 29 31 33 30 36 32
100 98 58 48 90 100 91 28 52 63 54 58 67 47 53 56 34 39 36 33 37 40 39 34 34 46 33 46 38 44 43 41 40 39 35 34 27 28 26 29 33 34 24 24 20
96 99 70 69 95 100 53 35 58 64 68 33 41 51 38 50 50 33 33 32 26 33 36 35 36 34 36 42 38 41 38 43 36 36 43 43 34 31 32 32 31 32 32 31 28
96 100 91 87 80 98 54 91 79 72 62 60 40 25 48 47 47 45 31 26 27 32 36 39 38 36 36 40 35 42 43 45 42 34 36 44 36 32 32 35 32 32 29 30 32
99 99 96 94 70 22 99 92 89 88 80 75 67 35 59 50 50 42 38 33 27 28 31 27 34 35 32 27 27 36 34 37 36 36 33 31 31 29 35 37 36 35 28 26 31
96 88 62 92 88 94 97 84 85 82 77 70 81 62 63 61 68 52 39 39 29 29 33 35 34 37 32 29 28 30 28 33 36 33 28 32 30 28 34 36 37 39 33 26 30
90 92 93 78 38 48 100 91 80 78 77 54 64 69 63 64 63 44 55 45 48 34 34 35 38 40 38 35 34 34 34 34 38 37 37 38 32 32 33 36 33 37 39 35 32
90 79 100 63 100 99 84 92 96 78 75 60 62 47 32 24 65 76 64 60 62 62 49 41 38 41 40 41 45 44 32 39 38 35 38 34 31 34 35 36 34 38 38 37 35

GFSSW_700_rhum_075.txt.gz
RH
37 36 27 16 10 9 9 9 12 15 18 21 22 22 18 15 13 11 9 11 12 9 12 15 17 18 21 27 22 26 22 19 16 19 33 36 49 61 42 60 76 78 60 56 68
26 29 33 34 32 23 15 14 16 18 20 22 23 23 19 16 14 12 9 13 10 10 13 16 32 29 35 26 28 27 23 20 19 20 22 28 45 61 62 62 69 85 67 42 67
17 20 24 26 29 32 32 30 25 24 23 23 23 22 18 16 15 26 11 13 9 11 13 16 26 35 35 31 28 26 23 25 22 26 32 33 44 60 56 46 72 70 88 64 56
7 10 13 18 21 24 26 28 29 28 26 24 24 22 18 17 21 18 12 13 10 12 13 15 26 33 31 30 28 27 24 26 28 32 39 42 48 48 55 64 39 62 87 66 60
4 6 7 10 13 17 19 23 24 23 24 24 24 22 18 17 18 16 13 12 11 14 14 23 33 33 33 30 31 29 24 29 38 31 47 48 48 50 52 39 34 47 82 76 73
3 2 2 3 4 7 11 13 15 18 21 22 21 20 19 17 19 17 12 11 12 16 16 38 39 38 38 34 33 34 34 36 42 44 49 48 46 48 76 40 27 30 77 97 99
11 3 2 2 2 2 4 6 7 10 16 14 17 17 17 17 16 16 12 11 14 21 42 40 40 39 39 35 36 44 38 38 39 39 40 48 44 76 38 57 69 30 75 84 95
13 15 6 2 1 2 2 2 2 4 7 9 10 12 16 13 13 15 12 12 14 23 22 45 44 43 44 40 38 40 37 38 50 40 39 41 52 70 54 71 86 81 64 65 99
2 6 14 7 2 1 1 1 1 1 2 4 5 6 11 16 11 14 14 12 18 27 21 22 31 46 43 35 33 34 33 36 35 33 34 38 34 65 64 66 79 88 75 45 80
2 3 3 14 7 1 1 1 1 1 2 2 2 6 10 12 13 14 14 13 45 38 30 31 47 44 40 34 28 30 39 26 23 42 33 29 31 36 59 61 61 77 99 44 62
2 2 3 3 12 4 1 1 2 33 4 3 17 6 14 15 11 13 13 15 39 49 44 44 41 37 31 30 27 28 27 26 28 33 32 28 30 32 54 62 67 68 92 76 49
2 2 2 3 3 8 1 1 1 1 2 4 7 3 3 10 12 15 16 20 40 40 41 39 37 34 34 29 29 31 30 28 29 29 34 31 30 34 42 52 64 77 77 88 93
5 2 2 2 3 4 3 1 1 2 1 3 8 6 5 9 14 31 23 31 38 36 35 35 32 34 38 32 33 33 32 33 34 33 34 31 28 27 33 49 59 74 73 84 87
15 8 2 2 2 3 4 2 2 4 24 24 26 20 15 8 17 15 40 32 33 33 32 34 30 37 36 35 36 33 33 36 35 32 40 30 28 37 27 38 51 63 68 72 78
21 20 13 2 2 3 37 4 2 5 26 30 46 34 23 19 22 16 23 35 31 32 32 31 31 35 37 36 35 34 40 37 36 33 28 25 19 22 22 25 32 46 62 68 74
21 24 23 12 2 5 4 4 5 35 28 28 45 28 28 28 29 31 25 38 31 30 31 29 30 33 34 35 38 39 42 39 38 35 33 25 24 23 21 19 29 29 45 59 68
21 23 27 24 6 13 10 16 56 33 21 24 42 54 54 45 29 37 32 37 33 32 32 32 32 36 39 40 40 41 39 37 39 34 34 35 26 20 28 23 28 28 33 43 60
23 28 25 29 23 19 80 82 44 23 24 42 45 69 58 52 50 40 35 37 34 30 30 31 28 34 39 37 38 37 35 34 46 39 30 37 24 21 24 27 26 29 32 36 43
43 33 28 28 33 32 100 100 45 24 20 25 42 54 61 65 45 39 35 32 32 30 28 27 26 29 33 37 36 33 34 32 36 34 32 28 23 24 23 23 26 29 35 39 46
97 72 40 39 44 71 100 96 49 32 22 32 32 34 44 63 45 41 35 29 32 30 28 26 26 27 33 35 35 38 40 37 34 37 48 24 22 20 23 23 30 28 30 44 40
98 99 78 57 79 80 98 82 73 41 26 29 40 37 37 56 50 45 36 32 32 31 31 28 29 28 32 38 33 37 38 37 32 38 38 35 23 35 23 24 27 30 32 34 42
98 100 90 72 96 82 98 32 79 57 40 35 39 46 38 44 59 44 43 32 33 32 34 31 31 29 33 33 31 30 34 32 33 30 31 30 30 28 27 27 30 31 31 34 36
97 98 93 76 96 88 22 19 94 75 49 49 55 60 71 62 63 50 40 36 35 36 32 34 32 31 30 31 38 36 35 35 35 33 33 50 41 27 28 32 32 33 31 32 38
98 97 99 83 91 72 28 79 76 72 72 43 55 53 57 73 62 52 66 45 38 38 36 38 32 33 32 28 31 33 30 30 31 36 39 33 28 24 24 29 36 33 32 33 31
97 90 89 98 80 90 90 68 72 64 75 66 50 54 56 54 48 50 66 51 41 31 39 43 36 33 29 26 25 24 26 28 29 31 32 31 28 22 24 27 28 31 34 36 36
95 95 100 90 66 88 96 80 66 58 55 55 62 50 52 46 56 41 55 63 57 43 31 47 43 36 30 30 27 24 24 25 24 24 26 25 25 25 28 27 28 31 36 40 42
84 81 97 90 98 98 82 86 68 55 54 52 59 61 55 53 64 62 77 74 85 74 64 52 48 37 38 33 31 31 30 28 27 26 28 30 28 28 28 28 31 31 33 44 41

GFSSW_700_rhum_078.txt.gz
RH
24 27 28 32 33 31 21 12 8 8 10 13 17 19 20 20 18 15 13 11 9 9 9 11 12 13 20 34 28 22 23 23 25 19 23 28 31 37 51 48 62 89 67 62 61
14 16 19 24 27 29 31 30 26 18 15 16 19 20 22 20 18 16 16 10 11 8 11 12 26 36 36 31 22 25 24 27 24 19 21 24 24 31 49 44 59 55 95 87 70
12 10 11 14 16 22 25 27 30 29 26 24 22 21 23 22 18 23 18 11 11 9 11 13 35 32 33 32 28 24 24 22 24 23 26 29 36 38 44 50 58 42 72 56 73
12 11 10 8 10 11 16 20 23 25 26 26 25 24 24 23 23 26 20 14 10 10 11 11 22 31 30 28 27 26 23 22 24 24 31 33 42 39 42 63 49 39 35 51 76
22 14 9 9 7 8 8 9 12 15 22 24 25 24 24 22 20 21 19 15 10 11 12 13 33 30 28 28 27 26 28 23 23 31 31 39 37 44 48 71 46 26 20 47 85
16 25 21 13 8 6 6 7 7 7 14 18 18 21 22 22 22 22 19 16 10 11 12 15 33 35 36 34 31 29 29 32 28 33 40 40 45 53 56 59 61 22 28 57 86
2 3 10 22 19 9 6 6 5 5 6 9 11 13 18 22 16 18 16 17 10 11 13 38 38 38 35 37 35 33 33 34 36 37 41 48 41 42 38 53 76 43 33 30 52
2 2 2 2 12 18 9 6 3 4 4 5 6 7 17 18 15 14 13 15 11 31 20 40 40 40 42 39 38 35 32 40 45 32 40 43 37 36 40 71 80 83 43 31 49
3 2 2 2 2 5 18 9 3 2 2 3 4 4 11 17 17 14 12 14 12 13 38 33 43 47 44 41 37 29 36 45 37 38 40 38 32 50 58 64 73 67 51 30 63
2 3 2 2 2 2 4 17 5 2 2 2 2 6 18 14 25 14 12 16 24 30 47 28 45 45 42 39 34 34 45 36 34 38 35 33 25 47 59 52 67 61 33 33 44
2 2 2 2 2 2 2 6 8 18 25 20 30 15 14 28 17 15 21 17 28 47 48 46 45 39 36 33 32 27 27 25 25 30 33 32 23 28 49 53 59 57 28 32 33
4 3 2 2 2 2 2 3 7 20 12 8 8 11 7 4 24 11 33 25 21 41 44 43 41 38 34 32 30 26 25 26 26 26 32 29 26 31 38 51 53 59 32 27 26
12 10 6 3 3 2 2 3 4 8 8 11 14 13 12 8 7 6 37 27 30 39 36 40 34 36 32 32 30 28 29 30 32 29 33 31 28 28 36 50 53 63 69 47 22
17 16 15 11 7 3 2 6 62 3 19 17 19 22 21 12 20 8 35 33 34 33 34 32 33 32 33 34 31 31 29 31 30 31 29 34 34 28 32 43 47 61 71 77 50
17 17 17 16 16 12 87 18 40 9 38 15 25 42 32 30 28 23 15 41 39 34 33 31 30 31 31 32 32 32 32 38 34 32 31 36 37 22 31 36 38 50 64 72 62
17 17 17 17 18 22 63 100 38 59 35 23 38 33 34 42 31 30 21 32 36 36 32 29 28 29 28 32 33 33 34 39 35 35 35 29 28 29 29 28 25 37 51 64 69
18 17 16 18 20 31 17 100 84 48 17 17 34 48 43 50 45 41 35 36 41 36 31 28 27 27 28 30 32 34 37 38 53 46 40 32 32 28 24 26 25 27 35 43 62
17 16 16 18 22 34 27 99 88 28 23 21 28 33 47 48 47 43 37 30 34 33 32 30 27 27 30 35 36 36 36 37 54 86 55 44 32 20 26 27 28 27 28 35 46
15 18 18 21 28 31 62 100 87 35 20 24 32 33 49 48 43 43 38 34 32 34 30 27 27 28 29 34 36 36 36 34 33 39 53 46 36 28 23 23 23 25 28 30 35
60 67 46 53 56 39 100 98 69 64 27 24 23 37 41 50 53 44 38 38 33 36 35 29 29 28 26 31 34 35 41 36 31 47 46 26 24 41 32 27 25 28 30 38 46
98 98 82 96 93 75 86 65 15 22 65 48 33 24 27 27 53 43 39 40 38 41 41 31 30 28 24 29 30 32 33 42 36 32 44 51 31 30 38 34 31 27 30 32 35
97 98 100 96 99 73 48 40 12 39 54 58 58 49 27 33 41 59 44 42 40 42 37 31 31 31 29 29 31 29 32 36 36 33 41 44 42 28 30 27 27 28 29 30 35
97 100 98 94 94 91 69 44 35 80 62 42 60 50 35 48 39 54 54 39 46 46 38 33 32 36 30 30 31 32 29 31 31 30 33 47 40 35 29 26 31 31 31 31 31
98 98 99 96 90 100 100 93 73 75 72 48 64 56 52 47 68 54 64 47 47 45 45 35 35 34 37 34 31 30 28 28 34 37 40 40 34 29 27 24 28 31 34 41 31
97 90 92 94 100 99 97 83 78 72 64 68 72 72 75 76 74 60 77 69 51 46 44 44 48 36 31 30 28 29 31 31 29 28 28 31 31 30 26 22 27 33 34 39 34
96 94 100 100 94 92 90 90 74 59 60 52 71 69 64 97 53 48 61 79 67 60 61 39 47 44 38 31 31 29 28 26 27 26 25 26 26 24 23 22 28 30 28 29 36
91 81 98 90 96 90 73 96 79 66 56 53 45 56 68 75 88 81 53 52 80 74 72 59 48 44 45 37 31 29 26 26 22 24 24 24 25 26 27 29 28 28 31 31 31

GFSSW_700_rhum_081.txt.gz
RH
19 21 23 25 26 28 30 31 29 26 16 10 9 12 15 15 18 18 17 16 13 9 8 10 10 12 14 19 24 26 27 23 24 26 25 25 26 31 46 48 53 60 61 48 93
23 21 18 20 19 22 24 27 28 29 28 25 21 18 20 18 19 19 20 16 10 9 8 10 11 16 28 31 32 29 23 25 24 25 23 26 26 32 37 55 68 70 66 49 66
30 28 26 23 21 18 15 20 23 25 27 27 26 25 25 22 21 19 23 18 13 9 9 10 11 26 32 30 32 32 27 24 24 22 24 28 32 38 46 56 69 64 63 42 39
32 32 32 30 22 22 18 15 15 16 21 24 26 26 26 25 22 21 20 19 16 12 10 11 12 15 24 29 29 29 28 26 25 22 24 26 34 40 45 49 52 51 37 44 42
8 16 26 30 31 26 22 17 14 13 15 17 20 23 24 25 22 20 20 20 17 14 11 12 12 24 28 28 29 31 30 28 32 32 32 32 41 39 43 39 48 31 36 27 34
2 2 3 5 15 28 29 25 17 12 15 13 15 17 21 24 21 22 22 20 18 15 11 11 12 30 33 36 34 32 30 29 29 33 31 40 40 46 44 40 39 30 47 25 27
3 2 2 2 2 3 9 24 23 12 11 13 12 16 19 26 15 16 20 18 17 15 11 13 28 36 38 35 35 38 39 37 32 37 38 38 39 50 46 38 41 64 50 30 28
3 3 3 3 2 2 2 3 12 19 12 8 8 9 23 24 19 18 17 17 15 14 12 26 41 42 39 31 30 34 34 34 32 37 32 34 35 46 41 45 45 47 62 40 39
2 2 2 3 3 3 2 2 2 10 18 10 8 8 21 22 19 18 17 19 14 14 22 41 44 44 38 39 45 40 41 34 36 40 40 37 39 39 44 37 66 81 73 36 34
2 1 1 1 2 2 2 2 2 3 8 14 13 15 20 19 19 18 16 16 13 14 28 51 43 38 31 41 42 35 38 34 34 35 40 34 38 39 40 48 56 70 56 23 22
2 2 2 2 2 2 2 2 2 3 4 7 14 18 16 16 22 20 19 13 14 25 44 45 47 40 15 32 36 37 36 33 27 31 36 33 33 31 37 51 55 64 46 26 23
4 6 5 5 4 2 2 2 3 22 8 6 6 14 16 17 16 16 22 28 18 14 44 51 48 31 26 38 37 36 33 27 26 30 36 32 32 27 40 44 52 52 51 27 16
12 12 10 11 10 8 4 3 2 7 11 3 3 3 5 13 14 15 18 27 29 17 39 49 23 36 40 38 34 33 30 28 28 31 30 31 34 33 36 48 53 52 48 31 23
15 15 15 15 12 15 10 5 3 8 18 3 2 4 6 9 16 16 14 22 39 21 23 43 39 39 40 40 35 33 31 30 33 33 31 34 37 33 36 47 49 52 50 29 27
16 16 15 15 16 18 25 31 73 66 72 3 16 22 24 19 19 21 15 26 42 28 31 31 38 38 35 33 33 34 31 33 37 36 34 34 38 34 30 38 48 47 49 41 32
17 17 17 16 16 18 19 96 98 58 81 6 26 27 30 26 25 27 27 19 28 38 30 32 33 30 32 31 31 31 33 33 38 39 43 35 38 40 34 31 36 40 43 42 39
22 20 18 17 16 16 17 58 97 82 20 13 22 38 37 32 31 34 35 30 41 42 42 36 35 34 31 30 29 32 33 43 58 60 64 48 51 40 30 29 29 31 38 36 42
23 22 18 17 17 17 18 31 99 57 35 13 13 24 45 34 46 36 37 39 36 41 41 43 39 31 30 29 28 29 32 42 64 85 82 52 57 34 28 29 32 30 33 37 46
18 16 16 15 16 16 23 67 81 53 55 39 14 24 29 40 45 49 39 40 38 38 43 35 37 31 28 28 28 34 36 36 41 56 66 56 40 34 36 32 26 24 25 28 40
23 24 20 27 30 36 41 28 21 10 12 25 49 46 40 45 48 47 47 41 40 34 39 38 35 27 29 27 31 30 37 38 38 74 82 45 46 36 35 31 27 26 28 30 39
97 98 74 87 83 93 61 47 49 28 23 49 52 58 53 58 68 82 53 43 35 37 31 36 37 32 35 29 30 33 34 43 47 46 59 60 39 30 33 31 30 29 30 30 32
97 98 100 97 97 91 82 75 50 55 32 41 27 66 58 51 62 62 66 55 39 37 33 35 38 40 35 35 33 29 32 34 41 46 40 41 42 33 40 32 28 28 28 30 32
96 97 99 94 99 97 99 97 79 71 46 33 32 35 35 58 73 71 79 39 48 40 38 38 40 50 43 39 37 29 32 31 31 36 42 59 43 32 35 37 28 27 30 31 30
97 99 100 95 90 91 100 100 86 81 52 52 24 56 44 36 68 65 94 67 51 49 46 44 53 54 50 45 38 37 30 30 33 35 33 36 36 38 36 31 27 27 27 31 35
95 94 96 93 100 84 91 92 95 86 91 68 24 36 55 60 68 67 86 97 61 57 49 46 49 47 43 40 41 43 34 31 29 29 35 40 43 35 32 31 28 27 30 31 35
92 96 100 98 95 99 79 95 92 89 88 80 44 24 51 60 66 66 76 98 96 57 52 52 53 51 48 41 40 37 45 32 30 30 27 31 30 30 29 29 24 24 28 29 34
93 95 100 93 96 96 91 81 95 79 70 74 55 37 34 60 74 71 81 93 96 83 57 52 62 53 55 46 48 45 37 38 37 33 28 26 25 25 25 25 27 28 30 30 31

GFSSW_700_rhum_084.txt.gz
RH
18 22 22 20 22 24 26 28 29 29 28 26 24 16 11 8 12 16 15 15 18 14 9 8 10 11 14 22 25 28 28 24 24 24 26 27 28 36 43 48 46 48 49 45 41
33 32 31 30 24 24 23 23 26 27 28 28 27 25 25 18 15 17 16 18 12 10 10 8 10 10 13 27 30 32 31 25 26 25 25 28 25 28 42 40 40 47 46 39 27
47 48 44 42 39 34 31 26 24 24 25 27 27 28 27 25 21 19 18 20 16 15 11 9 11 13 9 22 30 33 32 30 29 27 27 27 30 30 40 38 38 42 46 24 29
15 23 31 37 40 43 41 36 29 26 28 26 25 26 26 27 24 22 21 20 20 18 15 11 10 12 11 18 30 30 30 32 30 31 32 33 31 29 41 42 43 40 48 32 28
2 3 4 7 13 24 34 38 38 32 31 29 30 27 27 27 26 24 22 21 21 20 16 12 11 13 16 25 32 34 34 33 33 31 30 34 33 33 40 46 45 42 38 33 28
3 3 3 3 3 3 4 14 30 31 33 32 28 30 28 29 22 21 21 21 22 20 17 12 10 19 29 33 37 35 34 33 31 30 28 35 38 36 41 41 44 41 39 27 20
42 28 3 3 3 2 2 3 3 7 22 32 32 31 32 30 21 21 23 23 20 18 17 12 13 32 37 37 37 37 36 31 25 30 33 39 34 36 37 47 39 38 40 23 22
11 17 12 3 3 3 3 2 2 3 3 8 19 28 34 33 25 18 16 23 21 18 16 13 35 35 38 44 38 32 32 33 30 32 33 38 32 31 37 42 38 39 40 23 23
2 2 2 2 2 2 3 2 3 3 3 3 5 12 21 26 26 25 20 24 17 17 16 15 36 37 37 48 43 36 40 31 32 36 35 36 32 36 38 43 40 46 33 29 25
2 2 2 2 1 1 1 2 2 3 2 2 2 4 8 20 22 20 18 18 14 15 16 24 39 38 38 45 40 32 40 39 38 36 37 34 34 38 43 42 39 48 38 50 24
4 4 3 3 2 2 1 1 1 2 2 2 2 3 5 15 20 22 22 25 18 15 16 31 37 21 13 20 16 26 40 41 39 31 36 37 35 36 44 41 39 43 43 55 17
7 7 7 8 8 7 4 2 2 4 2 2 2 2 2 3 12 20 21 24 21 14 19 44 32 15 14 17 23 36 41 39 36 27 32 34 34 35 35 31 34 43 46 54 21
12 12 11 12 14 10 8 8 5 4 6 1 2 2 2 3 3 8 24 23 24 17 21 32 19 22 25 25 36 39 42 39 31 28 32 33 35 35 34 34 38 45 50 45 23
16 18 15 15 12 14 12 10 8 8 15 3 1 2 2 2 3 3 16 27 25 26 24 29 19 33 44 35 41 45 39 34 32 38 36 34 39 33 35 39 38 42 42 45 37
21 19 17 17 16 15 15 14 15 62 36 3 4 7 20 11 7 10 7 16 28 25 27 27 22 28 35 33 38 41 39 33 32 34 37 36 39 34 38 40 38 39 38 42 47
20 21 20 18 17 16 15 19 87 77 74 3 12 19 18 20 25 29 20 14 16 33 36 32 24 33 31 32 37 38 34 32 34 40 47 47 47 34 35 34 36 41 39 38 39
23 24 22 20 18 17 15 46 89 93 21 12 16 46 37 31 28 29 32 24 21 38 42 40 30 25 32 34 33 32 33 40 50 53 61 48 51 42 34 32 31 33 33 34 38
30 28 26 22 22 19 17 31 99 51 36 16 22 32 39 51 51 35 32 37 28 37 41 43 41 28 30 36 34 33 32 39 58 76 68 50 47 38 37 36 35 31 32 33 38
36 30 24 23 20 17 18 22 30 47 69 63 44 38 24 36 48 54 48 38 37 34 42 41 43 27 27 33 34 31 33 32 34 62 66 51 44 40 33 33 30 32 27 34 37
36 30 23 23 32 27 24 18 16 15 13 20 49 49 49 46 59 78 68 52 39 40 35 38 42 33 29 30 31 32 30 36 41 77 74 56 52 42 36 32 28 25 25 26 29
70 53 23 51 93 87 68 26 22 24 24 36 20 33 22 56 68 78 73 70 57 49 40 40 41 39 34 30 31 31 32 38 38 40 74 67 43 34 31 30 30 27 27 28 30
84 88 77 71 93 88 76 83 58 53 53 49 44 30 14 23 19 55 72 85 64 63 63 40 38 43 33 32 33 31 31 31 41 51 48 46 47 31 36 35 31 29 30 30 28
94 98 97 100 99 95 99 100 99 96 74 71 62 41 41 69 78 36 43 52 85 83 56 41 38 44 38 34 32 37 38 35 34 38 47 64 48 36 33 37 31 30 28 29 31
99 100 100 98 86 95 100 100 100 100 98 90 63 62 62 67 47 67 30 49 86 96 67 46 39 37 43 37 35 36 38 37 34 40 42 44 44 39 37 36 36 36 32 28 27
99 97 94 90 100 87 91 100 100 100 100 94 74 63 58 73 53 59 35 45 64 90 92 79 46 39 42 39 42 44 41 42 37 33 37 34 33 33 34 38 38 32 29 28 30
98 98 95 92 82 100 100 100 99 98 97 79 80 64 76 72 48 36 78 82 84 79 98 88 65 51 43 45 49 60 60 43 43 35 32 32 32 30 33 30 29 31 28 26 30
98 97 100 95 96 100 96 98 100 96 88 77 72 90 88 55 44 50 75 88 95 88 96 96 86 59 53 51 53 58 56 50 44 40 38 35 32 28 31 28 28 26 28 30 30

GFSSW_700_rhum_087.txt.gz
RH
33 29 27 26 26 27 26 26 27 28 29 29 28 28 25 19 13 10 10 12 15 17 17 11 9 10 12 17 23 29 29 24 24 26 28 27 28 41 33 41 42 40 44 47 30
48 49 48 43 36 34 35 35 33 30 27 27 28 28 28 25 22 19 16 16 16 15 11 10 9 10 11 23 27 33 30 24 30 31 30 29 30 34 31 29 38 43 45 49 40
27 28 36 45 50 50 48 43 41 39 37 34 29 27 26 28 26 24 22 19 19 15 14 11 9 11 12 21 26 28 27 30 30 32 31 33 35 34 32 30 33 40 45 38 39
3 4 5 12 22 31 37 44 48 46 43 40 38 35 30 29 23 24 23 22 23 23 19 16 11 12 10 13 20 32 32 32 35 34 34 35 35 34 34 34 34 39 42 38 31
20 6 4 3 3 3 6 13 25 34 39 44 42 40 37 34 31 24 26 25 24 22 21 20 14 12 12 12 20 30 31 33 35 35 37 35 31 34 39 38 37 41 42 41 35
36 32 37 25 20 9 3 3 4 6 13 30 39 42 40 36 28 24 25 22 22 22 22 21 16 14 14 17 27 29 30 31 30 33 37 30 29 36 35 36 35 38 41 37 25
10 38 44 32 31 47 32 4 3 3 3 5 14 25 36 33 30 25 25 23 22 22 21 21 17 15 20 26 33 26 28 18 19 28 28 32 35 35 31 33 36 39 41 33 35
3 3 4 9 27 30 23 15 5 3 2 3 4 4 14 23 30 32 24 26 22 21 21 19 16 17 23 36 35 29 24 20 27 30 34 36 33 31 33 35 37 39 44 34 28
2 2 2 2 2 6 20 6 4 3 3 3 3 3 5 6 10 21 31 31 24 16 17 18 17 23 36 43 41 35 19 20 28 36 37 39 35 32 34 36 37 38 43 35 33
3 2 2 2 2 1 1 2 2 2 3 4 3 6 6 5 9 20 26 22 22 16 15 18 21 28 36 44 42 24 23 25 39 34 40 39 37 35 36 37 34 36 41 40 39
3 3 3 3 2 2 1 2 1 2 3 2 2 2 3 4 6 20 22 20 19 16 15 18 28 18 17 27 25 30 34 38 39 35 40 33 35 34 34 36 31 33 39 41 47
4 4 4 5 5 4 3 2 2 3 2 4 2 1 1 2 3 4 17 30 24 21 15 22 28 19 23 30 35 36 36 24 36 35 38 31 32 32 34 34 33 35 40 48 43
5 4 6 7 8 8 7 7 6 4 4 1 1 1 1 2 2 2 9 30 29 26 20 18 20 22 24 26 36 28 29 34 36 35 38 36 36 34 33 33 33 33 36 37 40
6 6 7 11 10 13 11 11 9 9 18 3 2 4 3 2 2 1 2 12 32 30 25 26 17 27 36 40 28 31 32 36 40 41 38 38 42 36 34 33 34 36 37 38 43
6 8 9 12 16 15 13 13 18 65 40 5 6 6 9 20 9 11 4 4 16 40 30 28 22 20 32 23 40 35 37 41 40 42 38 37 40 36 36 34 33 35 36 37 45
6 9 13 17 18 17 14 15 50 78 64 7 27 39 35 27 32 21 25 9 7 23 41 36 30 28 22 22 35 38 41 41 42 40 51 40 43 37 34 25 31 32 35 38 42
6 12 15 21 21 20 16 19 67 96 21 22 34 50 47 49 47 38 36 33 17 13 15 32 41 33 32 33 30 37 42 50 54 52 61 38 56 37 29 30 34 30 32 33 37
12 17 20 24 26 25 19 37 82 42 49 33 38 33 35 37 44 45 45 38 32 23 34 21 29 36 32 30 32 36 38 45 57 73 55 51 58 38 33 34 33 30 31 32 35
33 30 23 32 30 28 23 21 53 50 59 70 57 37 40 42 44 43 57 53 41 33 32 39 41 32 26 26 26 31 39 35 36 59 70 50 46 37 35 34 32 30 32 30 33
42 42 30 43 35 28 24 20 18 28 35 40 30 29 33 26 36 39 56 69 64 55 47 34 36 40 36 34 28 30 34 37 44 73 80 61 50 39 36 34 32 31 30 27 26
84 82 48 57 48 65 45 23 21 18 16 22 32 26 13 12 15 24 32 61 66 73 68 67 52 41 40 38 37 34 36 37 36 38 54 70 49 36 35 31 32 29 26 26 28
84 97 80 86 89 64 49 44 26 27 28 43 38 26 21 25 36 40 26 16 58 58 72 92 82 49 43 38 40 36 32 33 42 54 45 43 45 33 33 32 31 33 29 29 30
82 96 90 95 99 100 79 52 60 48 48 60 68 68 75 70 72 70 36 18 17 24 84 98 77 60 50 41 33 39 40 39 38 37 41 58 48 38 38 36 35 33 32 33 31
89 100 99 99 84 97 94 99 98 90 88 82 75 70 74 69 69 72 53 32 40 37 62 83 98 98 58 44 37 37 35 38 38 41 43 47 41 39 38 35 34 34 32 31 30
100 98 94 92 97 91 98 93 91 99 97 97 91 89 85 93 73 66 53 35 42 59 53 79 98 89 64 50 38 39 36 38 40 42 41 41 39 35 35 38 37 35 37 32 31
96 98 100 85 90 100 98 93 100 100 98 98 85 77 86 99 91 69 41 54 68 93 97 93 94 98 79 53 42 37 37 42 43 45 46 44 36 34 31 33 33 34 35 34 33
97 100 98 96 96 98 90 85 89 93 96 92 90 98 90 68 69 68 69 71 72 85 99 95 94 99 86 61 51 53 43 44 42 43 52 41 40 36 33 31 32 32 30 31 29

GFSSW_700_rhum_093.txt.gz
RH
47 48 48 49 49 49 49 48 46 44 38 33 32 33 33 31 28 28 25 24 18 12 14 18 19 19 11 12 12 14 16 19 19 22 28 32 31 32 32 33 34 35 36 40 46
22 21 20 24 30 33 35 38 41 43 43 43 41 35 34 36 34 31 28 26 25 19 18 19 18 16 11 12 13 14 14 13 18 24 31 32 34 33 30 33 32 36 41 44 45
18 15 12 7 6 7 10 13 21 30 35 38 42 45 42 38 36 36 31 26 26 25 22 20 14 14 12 12 13 16 14 14 18 24 32 32 33 34 33 32 32 37 42 43 43
14 20 25 28 32 26 11 8 5 5 11 19 25 30 36 43 37 30 26 25 25 29 25 22 14 15 13 12 14 19 18 18 16 26 32 31 30 30 32 28 31 39 41 40 43
5 6 8 10 10 9 25 23 21 15 8 8 8 5 7 21 36 41 39 29 27 24 30 31 20 20 22 18 13 14 15 18 16 20 29 32 29 32 26 29 33 38 34 38 43
5 4 4 4 5 6 4 4 17 21 21 31 36 39 18 10 13 24 30 36 36 30 24 24 29 25 24 23 17 15 14 16 18 16 26 30 28 30 25 36 33 35 36 38 43
5 5 5 5 4 4 5 6 6 5 20 21 24 29 34 27 7 5 9 30 28 22 22 18 20 22 24 25 21 16 14 14 14 17 20 21 19 21 38 36 34 35 37 39 44
5 5 5 4 4 4 4 4 5 7 4 4 6 13 22 26 21 12 6 4 25 23 21 22 21 19 26 27 23 22 24 21 17 18 25 34 31 34 35 36 35 36 38 39 44
5 5 4 4 4 4 3 3 3 3 3 3 3 5 15 20 22 12 8 5 5 25 27 19 25 28 28 27 28 26 31 25 17 16 20 36 35 34 33 33 33 34 35 37 45
3 3 2 2 2 2 2 2 2 2 2 2 2 2 6 10 14 18 17 12 11 7 22 20 20 32 29 24 34 32 26 21 17 21 17 36 36 33 30 33 34 34 34 36 46
2 2 2 2 2 2 2 2 2 2 2 2 3 2 2 3 4 9 20 16 16 29 22 24 14 27 22 22 25 33 30 28 20 29 23 21 35 34 29 30 33 33 33 35 46
2 3 2 2 2 3 3 3 2 3 2 2 2 2 2 3 4 3 6 10 12 27 33 33 24 18 17 16 27 28 30 25 21 22 28 27 33 34 33 29 32 34 34 35 37
3 3 3 3 3 3 4 4 4 3 3 2 3 3 4 3 2 3 6 10 10 14 20 26 26 24 19 18 31 27 30 24 25 27 32 22 27 36 33 35 35 33 32 32 35
4 4 4 4 4 5 5 5 6 4 4 4 8 16 14 14 15 9 8 10 14 27 38 44 38 33 28 27 24 24 20 26 27 47 42 31 39 41 33 29 30 30 30 33 34
4 4 4 4 6 5 5 6 6 6 21 11 18 34 27 24 26 34 34 21 12 20 23 18 24 29 33 32 33 30 36 36 36 43 47 47 50 43 40 33 27 30 32 34 35
5 5 5 5 6 6 6 7 11 15 36 17 32 50 42 42 46 39 41 39 30 14 18 23 24 30 33 30 32 45 49 52 54 56 58 54 48 42 35 30 27 36 31 31 35
7 7 6 6 6 7 10 13 27 50 11 40 44 45 41 42 45 50 54 47 38 29 22 27 36 38 38 35 37 41 52 46 58 62 51 43 47 39 35 30 29 24 32 36 34
9 8 7 7 6 6 10 24 48 16 35 32 41 42 41 40 46 49 57 43 45 31 26 22 20 24 31 33 36 34 38 42 47 53 43 49 56 38 34 28 29 30 29 35 34
9 9 9 12 9 8 21 31 23 38 35 45 33 30 31 46 39 29 50 77 73 55 44 50 41 23 18 26 27 40 52 36 36 45 56 49 47 37 34 28 30 31 32 33 33
13 13 14 24 17 19 29 28 27 35 55 41 36 26 23 25 21 16 12 76 75 74 57 62 63 37 37 33 27 39 34 49 53 48 44 46 50 38 33 30 35 31 34 32 32
52 41 37 44 44 42 32 32 33 27 31 35 41 39 31 29 23 25 17 20 20 35 83 62 66 55 37 40 38 41 42 40 42 44 43 42 44 37 34 32 29 32 33 34 31
81 90 63 72 71 88 87 40 27 27 33 33 36 33 30 20 16 17 20 22 13 21 23 46 49 80 64 38 44 49 46 42 43 43 54 46 39 35 32 33 32 32 32 29 28
100 97 90 91 94 98 87 58 64 51 42 42 43 47 40 33 40 34 40 35 51 52 57 50 83 89 63 55 56 54 48 50 48 44 42 52 44 38 36 34 33 32 33 31 26
100 97 95 98 88 97 95 88 83 65 74 70 61 57 83 88 74 67 77 63 68 95 84 62 52 64 57 72 62 68 63 67 80 78 50 49 44 41 33 32 33 30 37 34 30
98 93 87 89 90 100 99 93 83 89 89 90 90 69 65 74 90 90 83 70 63 55 53 55 76 68 81 49 43 65 66 56 60 58 66 46 46 43 39 34 33 36 35 36 34
97 91 83 88 76 88 85 86 90 91 97 80 81 75 92 95 89 96 96 94 84 82 72 98 93 97 96 80 61 44 48 56 55 60 60 58 47 38 42 38 35 34 37 33 44
91 82 98 86 81 83 82 80 88 93 88 74 74 96 96 94 97 96 94 88 91 75 81 88 94 93 93 83 91 88 49 73 62 48 53 55 42 43 40 40 38 35 37 35 38

GFSSW_700_rhum_096.txt.gz
RH
35 33 33 32 32 32 33 36 37 39 41 43 43 42 40 34 32 31 29 26 25 23 21 13 17 19 20 15 12 12 25 20 17 18 18 28 28 33 29 29 27 29 32 36 42
16 18 20 19 16 16 13 12 14 21 26 31 35 38 39 40 37 33 34 31 28 27 24 23 18 21 18 17 13 20 23 19 20 20 22 28 32 34 34 33 34 40 34 35 43
14 15 20 24 26 26 28 30 25 14 11 10 13 21 28 34 36 38 34 33 31 27 26 26 22 20 20 18 23 24 25 20 23 22 28 29 31 34 36 32 32 35 40 38 39
10 10 10 13 13 12 14 16 14 27 31 22 13 6 7 9 16 31 31 27 26 28 27 29 24 19 24 27 28 25 27 23 24 25 25 28 29 32 33 33 36 30 34 34 36
5 5 5 5 5 5 5 6 10 10 7 7 21 21 11 24 17 11 26 29 21 21 21 32 27 20 31 30 32 21 29 28 25 17 22 26 22 31 29 31 36 34 32 35 37
6 6 6 6 5 5 5 5 5 9 9 7 8 16 18 18 22 24 9 15 33 39 36 29 28 29 25 28 32 27 33 29 28 27 28 32 25 27 17 30 31 34 33 36 37
6 6 6 5 5 5 5 4 5 5 4 5 12 8 10 15 17 22 25 8 12 29 33 29 21 29 38 32 33 25 32 30 31 30 29 29 27 24 25 37 37 34 34 36 37
6 6 6 5 5 5 4 4 4 4 4 4 4 4 7 7 12 23 24 24 10 8 23 20 21 20 38 39 31 31 37 33 28 23 29 28 22 33 37 36 34 34 33 34 36
4 4 4 3 3 2 2 2 2 3 3 3 3 3 3 5 9 18 19 21 10 8 6 21 17 21 38 38 36 36 32 27 30 32 26 28 26 33 34 33 31 32 32 34 35
2 2 2 2 2 2 2 2 2 2 2 2 2 3 4 5 5 10 15 21 24 15 6 5 14 23 44 41 35 31 32 33 30 26 35 29 32 30 34 31 29 33 33 33 34
2 2 2 2 2 2 2 2 1 1 2 2 2 2 2 2 2 4 13 16 23 20 14 19 20 44 40 43 38 32 34 31 28 34 37 31 25 26 30 33 32 30 33 33 34
3 3 3 3 2 2 2 2 2 2 2 2 2 2 2 2 2 2 4 10 14 16 17 45 33 25 40 42 42 40 38 31 31 32 37 32 27 28 31 32 34 34 32 32 33
4 3 3 3 3 3 3 3 3 2 2 2 3 4 8 6 6 4 4 7 9 23 30 19 35 34 30 42 46 40 36 34 34 33 37 36 30 22 24 36 32 29 32 31 30
5 4 4 4 4 4 4 3 3 3 3 14 8 16 14 14 17 17 16 10 33 43 50 45 37 39 34 37 38 38 36 39 37 34 32 34 24 20 27 32 31 32 29 29 30
6 5 5 4 4 4 4 4 4 4 16 13 17 26 31 27 30 29 35 33 19 27 40 42 47 28 39 37 42 41 42 36 43 38 36 34 34 25 28 35 32 30 34 28 34
7 6 6 5 5 5 5 6 6 24 19 25 38 42 42 44 45 50 48 41 39 33 33 43 44 35 37 38 46 49 50 52 51 46 42 40 32 23 24 33 29 33 35 32 33
7 7 6 6 6 5 6 8 50 32 17 43 40 36 42 42 55 48 57 58 46 48 37 29 30 36 38 33 35 54 52 44 48 47 41 32 37 27 34 35 34 34 35 32 32
8 7 7 8 7 7 7 22 60 28 37 50 31 38 53 40 38 36 69 57 65 53 37 29 25 30 37 34 35 35 52 39 38 36 32 40 36 32 37 35 34 29 35 35 36
9 10 10 10 9 8 11 42 21 32 44 35 25 19 22 44 37 32 34 81 77 57 59 56 41 28 32 36 34 38 49 43 36 34 41 36 41 42 36 31 33 32 32 32 35
19 17 15 14 14 15 20 40 30 30 25 31 24 23 21 30 32 32 26 63 90 74 62 62 63 54 46 39 37 32 36 46 44 44 39 27 28 32 33 34 32 37 35 34 32
91 62 28 24 37 58 73 49 45 40 18 38 37 39 36 40 35 26 23 27 49 33 37 78 73 58 46 43 32 33 40 41 37 37 36 35 26 34 34 33 33 36 34 34 33
100 92 56 71 71 84 95 82 43 26 19 32 49 59 51 43 34 24 24 22 30 21 36 74 68 68 63 59 48 54 44 35 33 32 39 37 33 36 37 39 38 34 34 32 34
98 99 84 86 99 100 100 99 70 72 76 64 54 55 49 47 37 32 38 47 28 55 84 68 72 60 56 55 54 63 66 63 64 56 44 43 38 38 38 32 32 31 36 34 27
99 98 98 93 81 97 92 91 98 89 68 81 86 80 74 71 71 62 72 60 62 91 91 88 72 55 38 53 62 65 72 70 74 73 51 44 40 37 36 37 36 36 34 36 33
96 92 99 85 77 96 100 100 94 95 100 100 100 90 73 63 60 65 70 75 67 78 92 86 72 62 62 53 44 47 49 51 63 64 66 61 55 42 44 35 38 36 39 36 37
99 97 96 99 100 95 90 100 100 98 99 95 98 88 96 94 73 76 96 96 96 97 90 100 73 87 78 69 62 46 36 42 48 55 57 55 57 60 51 43 39 39 33 35 39
96 92 88 98 99 100 98 98 100 100 97 97 90 96 97 98 97 96 95 86 90 100 100 100 98 92 67 71 79 72 54 42 35 40 61 64 54 52 47 42 40 41 38 37 35

GFSSW_700_rhum_102.txt.gz
RH
21 20 21 20 21 22 24 27 31 33 33 32 32 33 31 29 29 29 30 33 33 29 30 28 24 24 16 14 28 28 25 22 19 18 16 15 16 18 22 22 26 28 28 32 36
21 20 22 23 24 26 26 24 24 26 25 24 26 25 24 30 32 31 28 28 32 34 32 33 29 26 27 30 29 27 25 23 18 17 17 17 17 17 20 22 23 24 26 29 36
10 10 9 8 10 10 9 9 9 10 10 10 13 17 20 21 23 30 22 21 25 29 35 34 33 43 44 35 29 26 24 23 20 18 19 18 19 18 18 19 19 22 25 27 36
11 11 12 12 12 12 12 13 11 11 11 11 11 10 10 18 20 24 23 25 21 27 30 32 32 44 40 35 31 26 23 22 21 21 21 21 20 20 20 20 19 19 22 26 33
10 10 10 9 10 9 9 10 11 11 9 9 11 11 9 11 17 18 19 22 22 21 26 31 45 42 39 36 32 28 26 24 26 23 24 24 24 23 22 22 20 20 21 24 32
6 6 6 7 7 7 7 7 7 7 6 6 6 5 5 7 12 14 16 19 19 23 22 22 39 44 42 40 38 35 31 26 24 24 26 27 24 23 22 22 23 22 22 28 36
6 6 7 7 6 6 6 5 5 5 5 4 4 4 4 5 4 5 5 17 17 19 23 19 32 44 46 43 38 36 34 28 26 25 26 25 26 24 24 23 22 21 21 29 46
6 5 6 6 5 4 4 4 4 4 3 3 3 3 3 3 3 4 4 4 10 12 19 23 23 30 39 42 42 40 37 35 32 28 27 26 26 24 24 21 22 21 28 36 44
4 4 3 3 3 3 3 3 3 3 3 2 2 2 3 3 4 4 4 6 8 10 17 20 20 19 22 26 30 34 37 36 34 31 27 25 25 23 22 22 27 32 31 32 33
3 3 3 2 2 2 2 2 2 2 2 2 2 4 15 17 5 2 2 2 4 8 16 17 17 15 14 22 27 27 32 33 33 32 29 25 25 25 25 24 26 31 30 28 29
4 4 3 3 3 2 2 2 3 3 3 3 2 2 2 4 2 2 2 2 2 3 40 28 25 22 21 20 22 26 29 38 49 38 42 30 25 26 27 24 23 24 24 27 28
4 4 4 4 4 4 3 3 2 3 3 3 2 2 2 2 2 3 3 6 14 23 41 43 38 31 26 24 21 20 30 38 42 45 43 42 32 26 28 27 24 22 21 24 27
4 4 4 6 6 4 4 4 4 4 3 4 5 4 6 5 4 5 8 6 25 37 36 32 26 25 30 31 30 25 22 36 46 51 56 43 33 29 26 27 27 24 22 24 27
4 4 4 5 7 7 14 6 6 4 5 13 25 16 12 8 9 9 8 16 28 19 22 23 26 27 27 34 34 33 30 29 30 36 44 41 32 30 27 26 25 25 23 21 28
6 5 4 4 7 7 20 6 6 4 38 28 45 52 51 16 48 34 36 42 19 26 22 17 22 23 26 27 34 34 32 31 36 37 37 35 31 31 27 25 25 21 20 26 30
6 6 5 5 5 8 8 7 6 32 30 20 36 37 32 43 40 37 48 40 28 37 33 27 22 22 29 33 37 35 36 38 34 33 38 36 32 30 28 26 24 23 21 24 26
6 6 6 5 6 13 22 9 61 45 15 14 24 31 30 25 35 34 33 38 44 38 35 31 28 26 21 28 40 43 41 42 44 46 42 33 32 30 28 27 26 23 26 27 29
8 7 7 7 8 28 50 78 71 24 23 22 29 32 31 23 20 24 30 22 21 32 33 31 23 26 28 22 28 36 42 49 67 54 48 58 66 35 28 28 25 27 28 30 38
11 12 10 11 14 30 100 91 47 30 22 21 21 28 28 19 26 22 22 23 18 41 51 41 28 35 29 25 26 31 40 41 48 48 52 62 50 41 34 28 27 28 28 31 39
62 69 18 42 76 100 98 91 52 34 28 30 32 27 18 14 11 22 21 17 28 59 57 46 50 40 36 29 26 28 30 33 44 61 67 43 41 54 45 42 34 31 29 31 32
96 90 48 83 78 98 93 78 63 32 43 37 39 33 22 18 15 16 19 20 30 33 44 38 46 41 40 44 34 30 33 36 41 48 55 55 40 42 43 40 34 36 40 38 31
90 99 81 88 98 96 96 85 70 51 39 37 43 37 33 28 25 24 22 24 22 25 28 28 36 48 37 44 54 69 39 34 37 40 43 45 40 37 63 49 40 38 40 41 39
85 93 72 94 95 98 98 81 72 67 50 46 45 42 38 31 32 32 31 31 29 28 24 57 51 43 34 27 31 40 47 47 33 34 37 50 49 39 53 59 48 46 40 43 45
96 99 85 78 89 92 97 88 60 64 58 55 51 46 44 40 37 36 35 34 35 37 38 54 66 68 50 32 54 66 56 51 45 82 43 35 31 30 36 53 61 37 35 36 38
97 83 76 91 69 68 64 95 96 76 74 66 59 57 53 49 45 41 40 39 38 47 48 60 59 53 50 42 38 40 48 54 52 51 72 60 50 48 56 70 49 47 40 39 37
96 95 96 90 95 97 89 63 89 87 71 97 62 52 58 50 49 43 41 41 44 48 47 59 54 48 49 42 36 33 36 42 44 40 37 37 36 36 42 39 37 36 38 43 40
87 90 94 95 96 97 88 90 79 63 89 88 83 86 71 76 89 72 63 66 78 76 64 64 58 47 52 51 40 33 31 33 36 34 32 31 29 29 32 33 35 41 42 41 34

GFSSW_700_rhum_105.txt.gz
RH
35 36 34 34 34 32 32 31 33 34 34 34 33 33 32 32 31 31 30 29 29 32 34 29 29 27 24 21 14 28 35 32 20 24 18 18 18 17 17 20 19 21 24 25 28
31 28 28 27 26 23 22 21 17 16 17 18 21 20 21 26 27 26 25 27 29 29 31 34 32 33 29 26 21 24 30 28 21 24 21 20 19 19 17 21 20 21 20 24 25
14 14 13 13 13 14 14 16 17 16 15 14 14 15 16 18 21 22 24 23 22 25 28 31 36 34 33 31 27 26 30 25 25 23 22 21 21 20 19 18 19 19 19 23 25
14 15 15 16 16 15 15 15 16 15 16 16 16 17 16 18 15 28 22 20 21 24 23 31 32 34 37 44 38 38 31 29 26 23 22 21 22 22 22 21 20 20 20 20 21
8 7 7 7 7 8 8 8 9 9 9 8 9 9 9 14 16 10 16 19 20 24 24 22 31 35 40 42 40 37 34 31 28 25 24 25 25 23 24 24 22 22 21 20 21
6 6 6 6 6 7 7 7 7 7 7 7 7 8 8 10 8 10 12 12 19 21 22 24 22 41 46 43 41 40 39 36 34 34 31 26 25 25 26 25 24 23 22 23 22
6 6 6 7 6 6 6 6 5 5 5 5 4 5 5 7 6 7 8 6 7 16 22 24 22 25 38 43 43 43 41 40 38 35 32 26 24 25 25 24 24 23 23 23 21
6 5 5 5 6 5 5 5 4 4 4 4 3 3 4 3 3 3 3 4 4 8 14 16 22 23 21 29 37 44 44 41 33 34 30 29 32 30 26 26 24 23 23 23 21
5 4 4 4 4 4 4 4 3 4 3 3 3 3 3 4 4 3 4 4 5 6 6 8 13 21 26 25 27 37 32 26 25 33 35 35 35 34 30 27 25 24 23 24 31
4 4 4 4 4 4 4 4 3 3 3 3 3 4 6 6 4 3 2 2 2 3 4 6 13 15 21 26 24 22 24 23 29 32 34 34 35 36 34 34 24 25 28 28 30
6 5 4 4 4 4 4 4 4 4 4 4 4 3 4 5 3 3 2 2 2 2 2 7 17 16 12 17 17 17 18 22 23 24 32 36 42 40 36 36 29 23 24 23 29
6 6 5 4 4 4 4 4 4 6 6 4 4 4 4 2 2 2 2 3 2 2 15 24 39 7 27 27 23 22 21 21 20 25 30 32 38 41 44 40 41 27 27 24 22
7 7 6 4 4 5 5 6 5 6 6 8 8 7 6 4 3 3 4 4 4 14 19 21 13 28 34 33 28 26 27 27 25 23 28 35 44 42 43 40 36 27 27 24 22
5 5 6 6 5 8 8 7 11 10 8 7 9 11 10 10 10 6 5 18 15 10 39 42 32 34 30 29 29 30 33 32 31 29 33 34 46 48 45 38 36 28 26 26 25
5 4 4 5 5 6 18 6 10 7 83 23 33 31 20 16 41 23 13 18 13 16 27 12 14 19 22 27 26 27 28 35 33 31 32 36 38 44 42 36 33 30 26 25 26
5 5 4 4 6 8 7 8 9 19 81 9 33 34 32 18 32 36 31 37 36 41 35 22 18 22 19 22 26 26 27 31 36 35 43 36 38 37 37 33 30 29 25 22 22
9 8 6 5 6 16 13 39 19 99 14 14 20 28 38 30 23 35 46 47 43 44 36 25 20 27 22 17 23 31 38 52 54 54 50 36 39 38 34 33 27 27 24 26 25
16 14 11 8 8 19 33 59 99 42 15 11 23 25 32 32 28 31 38 37 34 42 44 38 38 29 26 29 26 22 32 52 66 68 48 42 64 50 41 48 46 30 29 29 26
17 16 14 14 20 24 56 88 44 31 14 30 26 27 29 31 27 22 23 23 28 24 38 45 40 36 34 41 29 22 33 30 46 44 55 54 53 41 49 60 46 31 30 34 31
14 10 8 32 58 90 94 91 48 13 11 47 36 32 33 26 24 20 17 19 22 38 52 51 49 43 43 49 37 25 24 31 37 72 80 49 45 47 48 63 48 44 39 41 32
15 11 18 49 69 95 98 78 72 30 33 49 48 38 39 34 25 22 20 18 22 55 46 37 45 47 42 37 46 46 27 28 32 61 71 73 51 59 61 96 81 57 48 45 47
22 20 37 65 96 84 88 79 69 53 41 64 50 43 38 38 34 32 28 27 30 29 28 24 27 32 36 28 42 44 59 62 32 40 50 50 51 54 54 76 84 65 61 55 51
66 40 49 83 97 95 75 74 74 60 43 65 61 41 44 38 39 31 31 30 33 33 31 27 49 67 47 20 17 43 48 86 88 46 40 54 51 48 54 58 78 72 76 74 61
82 81 73 69 82 81 89 91 94 87 74 76 66 47 44 43 41 40 36 34 35 36 36 37 37 37 72 66 61 57 47 48 85 73 88 74 54 42 67 64 80 73 57 67 72
89 82 81 90 82 78 62 69 81 90 89 74 65 53 54 60 58 51 46 41 36 32 36 44 45 35 29 25 46 50 46 40 39 48 71 71 64 57 60 60 80 79 66 48 52
80 78 73 85 76 84 97 97 92 92 95 89 71 60 62 68 53 54 56 48 52 47 57 48 55 58 58 46 30 45 42 41 38 35 38 41 42 45 38 43 50 41 46 45 41
78 73 91 66 96 95 95 82 90 83 80 75 95 91 72 68 84 73 76 72 60 57 57 67 78 78 74 62 53 51 41 40 34 30 32 31 33 31 28 27 32 38 42 38 38

GFSSW_700_rhum_111.txt.gz
RH
42 40 39 39 38 37 38 37 35 34 33 33 32 32 30 27 26 28 27 27 28 28 28 31 32 31 27 24 22 16 18 19 12 12 10 11 20 22 23 23 22 25 23 22 22
36 35 34 34 34 33 32 32 31 30 30 30 29 28 27 26 25 26 24 24 26 26 28 29 31 36 32 27 24 22 19 18 15 15 14 14 17 17 21 22 22 23 23 23 22
29 26 24 24 24 26 27 26 27 27 26 26 25 25 25 24 22 22 21 20 21 24 26 30 28 34 36 32 30 25 24 22 21 20 20 17 18 20 23 23 22 23 23 23 24
28 25 25 24 23 22 20 20 22 23 24 25 24 24 23 23 18 18 21 19 21 23 24 26 29 30 34 37 33 32 29 27 26 25 26 27 22 25 25 24 23 24 25 26 24
19 18 17 16 18 15 13 12 12 12 13 15 16 19 18 16 19 12 17 21 25 26 22 20 22 25 30 34 37 37 35 32 32 36 35 33 28 23 21 22 26 27 26 26 26
12 10 8 7 7 7 8 8 8 8 8 9 10 11 13 15 12 12 10 12 11 13 13 16 20 24 30 32 34 34 37 38 37 39 38 34 28 33 24 22 24 31 27 26 25
10 7 6 7 7 8 7 7 7 7 7 7 7 8 10 13 7 8 9 9 8 9 12 17 19 22 36 34 37 36 36 38 38 35 36 36 32 34 30 28 26 29 30 26 25
9 9 7 7 6 6 6 6 6 7 6 6 6 7 9 10 7 6 4 5 6 6 6 10 17 20 25 30 34 36 39 39 32 31 32 36 22 32 34 34 33 32 31 30 24
21 21 21 18 20 22 12 9 8 7 6 6 5 5 9 8 6 5 4 3 3 4 5 5 7 23 25 25 24 26 26 25 25 24 24 25 22 22 22 22 22 27 31 30 26
27 28 30 26 16 15 19 29 32 29 12 7 6 6 8 8 6 6 6 3 3 4 7 9 7 9 26 31 31 21 24 22 23 22 18 21 20 21 26 30 28 30 33 27 28
17 14 15 12 11 18 33 32 29 13 13 13 10 7 6 9 7 10 13 10 8 9 7 7 12 10 7 8 12 17 19 18 19 17 18 15 18 18 20 20 16 18 20 22 28
10 9 8 7 7 6 11 10 10 12 25 18 14 12 11 10 8 10 14 19 14 7 7 10 6 9 12 14 14 18 19 16 11 12 24 24 21 19 27 28 19 20 16 22 20
6 6 6 6 5 5 4 4 5 5 8 14 16 17 12 11 11 9 12 10 11 14 13 12 8 9 7 18 31 29 29 29 23 28 31 31 27 25 31 28 16 14 12 19 30
6 6 6 5 4 5 5 4 5 5 7 9 15 20 22 16 12 12 10 9 7 7 9 9 7 5 15 27 42 36 31 31 36 39 40 32 38 29 29 27 18 14 18 26 41
6 5 5 5 5 5 5 5 5 5 19 6 40 45 45 39 26 42 37 16 11 7 8 7 10 10 8 8 18 19 30 35 37 32 29 30 41 28 31 29 16 14 22 29 38
3 3 5 6 6 5 8 7 6 7 29 5 13 44 45 44 45 37 46 30 23 14 25 20 20 22 23 21 26 27 28 27 26 35 47 32 36 29 28 25 22 23 42 37 41
3 3 4 6 8 9 10 11 11 23 7 17 26 28 22 30 33 39 47 42 44 42 36 34 28 22 23 24 21 20 27 40 42 60 48 32 35 32 31 29 36 47 35 25 45
4 4 7 9 11 12 14 15 29 14 8 5 5 6 12 15 20 38 39 52 50 46 46 40 38 33 34 35 37 37 40 39 42 50 40 34 46 36 33 38 39 32 38 50 55
4 6 9 12 16 15 13 21 13 14 36 30 17 20 39 33 32 37 29 30 44 39 51 53 50 46 36 32 43 40 38 37 36 31 53 37 36 32 28 40 50 56 55 60 60
6 14 16 16 16 14 17 19 24 28 30 34 41 42 64 51 45 45 46 35 40 40 57 54 58 52 43 33 41 53 52 42 44 60 49 43 49 38 40 61 62 54 45 64 62
12 19 21 19 18 25 33 28 27 33 61 75 80 76 56 60 33 54 50 47 36 32 30 52 47 46 46 42 41 38 50 61 61 59 65 54 40 55 68 62 71 68 65 69 79
17 23 26 27 36 57 51 60 75 80 87 94 77 69 63 62 71 54 45 58 43 36 41 34 34 32 38 39 38 36 57 62 85 92 92 90 66 48 48 57 55 57 62 62 84
22 25 29 38 59 62 64 88 99 94 76 91 83 76 73 93 94 49 43 51 41 33 38 42 39 33 31 38 43 62 69 55 58 82 81 93 69 51 53 52 51 75 69 81 94
35 47 59 55 64 79 82 77 74 69 80 65 64 71 75 64 86 80 47 47 47 52 30 38 43 35 38 42 33 30 29 27 41 48 52 63 58 44 50 56 70 82 80 63 98
57 76 78 66 94 92 90 88 77 73 85 92 72 78 97 90 92 80 56 54 55 47 43 52 40 36 38 44 42 35 29 44 40 34 47 19 24 41 40 50 61 67 74 72 99
75 86 88 86 74 74 77 68 70 76 98 83 93 92 99 96 92 82 63 56 63 50 44 53 58 65 56 57 56 57 47 24 40 41 43 30 26 40 41 47 51 72 92 80 99
87 88 94 68 67 81 78 76 81 96 94 91 97 93 95 88 86 78 66 67 74 66 56 58 66 66 58 63 69 59 17 34 30 32 35 44 12 41 35 27 74 63 96 79 83

GFSSW_700_rhum_114.txt.gz
RH
50 46 44 41 39 37 36 34 34 33 33 32 31 31 31 30 27 27 26 25 26 27 28 30 30 34 33 27 24 22 18 17 14 12 11 11 13 16 23 23 24 24 27 28 26
56 49 44 41 37 34 33 32 31 30 29 28 28 28 28 27 26 24 23 23 22 24 28 27 29 29 36 32 27 25 23 20 18 16 15 13 14 16 19 18 23 23 24 24 24
58 50 45 40 37 34 32 30 31 31 30 28 27 27 26 26 24 22 21 21 21 22 24 26 28 28 31 36 35 30 27 24 22 21 20 19 18 19 18 15 18 22 23 23 23
57 50 46 40 35 33 31 30 28 27 29 28 28 26 23 22 18 17 17 19 20 19 22 25 26 28 28 32 36 35 33 31 28 26 25 24 23 22 22 19 17 21 22 22 24
44 36 32 28 29 27 24 20 19 18 19 20 20 19 19 17 20 14 13 15 21 22 23 26 27 28 29 30 32 34 37 37 36 33 30 29 28 24 24 24 22 22 24 26 28
22 24 22 21 21 21 17 16 15 12 10 10 11 12 13 16 15 13 11 13 13 22 29 27 22 17 19 22 27 31 37 38 39 39 37 36 32 35 26 26 28 31 30 29 30
23 17 10 9 8 7 8 8 8 12 10 8 8 8 10 14 9 9 9 8 10 10 10 10 12 14 24 27 28 29 33 36 36 35 36 34 34 31 31 31 31 32 35 36 34
18 16 17 18 17 16 16 17 10 7 7 7 7 7 10 12 10 8 6 6 6 6 7 11 14 17 21 30 36 35 36 38 32 29 31 34 31 26 31 28 26 28 31 34 32
27 25 25 26 25 25 23 20 21 22 18 15 16 11 10 12 16 12 7 6 4 4 4 6 14 13 18 27 30 33 34 31 30 26 25 26 22 23 22 21 21 22 25 24 23
29 28 27 23 20 20 23 27 29 31 25 24 21 18 14 13 10 10 10 8 5 4 4 5 10 11 14 20 32 26 24 27 26 24 21 19 14 16 14 15 17 19 20 21 19
25 24 20 18 16 12 9 9 11 14 23 24 25 22 19 10 12 17 28 25 17 16 11 14 24 25 10 8 10 26 28 28 26 22 17 11 8 10 9 12 14 13 12 10 11
9 6 5 5 4 4 5 5 5 5 9 8 12 14 16 18 18 12 10 21 26 22 21 33 18 16 21 17 13 17 22 21 17 14 17 21 17 19 15 15 16 16 15 12 13
5 4 4 3 3 3 4 4 4 4 5 3 5 12 25 20 15 22 14 13 19 26 24 21 14 19 17 16 16 25 21 17 17 25 26 32 20 13 13 12 17 15 14 14 22
3 3 2 2 3 3 4 5 5 5 6 6 40 34 44 44 32 54 28 20 18 23 26 20 12 16 14 12 25 20 17 20 26 44 42 37 42 21 17 23 23 15 13 16 22
3 3 3 2 2 2 3 5 6 5 21 4 39 42 35 29 26 34 43 45 29 14 14 10 9 9 9 6 9 16 19 26 32 44 37 33 39 24 22 19 21 16 11 28 41
3 3 3 3 3 3 3 5 7 6 16 4 11 18 21 23 21 22 48 52 46 34 21 19 17 21 23 25 27 33 34 33 34 31 51 31 31 18 21 26 26 23 34 44 35
4 3 3 3 3 4 4 6 8 11 4 19 17 11 6 8 9 24 36 62 55 50 32 27 26 28 26 30 31 30 38 38 32 59 46 26 34 25 24 33 32 29 36 29 46
4 4 3 4 4 5 7 10 15 11 10 11 11 6 22 34 23 27 31 33 46 52 56 51 44 37 32 29 26 29 29 36 40 43 33 29 40 30 28 30 29 41 52 56 51
4 4 4 4 6 8 12 14 15 22 36 36 17 19 18 29 32 35 45 39 40 36 46 57 50 44 45 41 41 41 44 41 40 40 47 35 31 31 30 38 40 53 58 55 46
4 4 5 7 10 13 14 17 22 26 39 37 59 51 64 48 39 21 32 57 42 37 38 46 58 53 53 51 52 51 48 46 44 57 51 42 43 39 54 52 58 55 52 45 40
4 5 9 11 16 15 16 21 27 40 55 82 86 84 73 69 60 54 33 46 56 45 46 47 37 48 47 47 43 46 54 54 53 70 75 80 45 86 62 58 56 56 55 44 38
5 9 16 19 21 22 29 58 72 62 69 92 78 86 78 78 96 76 66 48 46 55 56 46 52 46 42 48 38 40 46 45 57 90 77 87 71 55 54 54 52 59 47 42 39
9 17 20 21 32 41 47 48 50 43 82 80 75 78 77 67 94 78 67 57 53 50 52 58 54 45 49 68 80 63 56 47 49 59 68 88 60 40 40 31 30 59 60 64 61
18 25 29 30 37 50 84 88 82 81 80 69 68 67 68 78 81 84 55 61 63 52 45 51 50 44 44 43 36 36 35 34 34 45 44 48 24 19 15 8 16 48 59 67 67
24 37 43 48 65 94 97 81 67 70 80 85 88 85 100 95 94 87 64 72 68 55 48 67 48 43 36 39 40 37 34 36 34 27 43 23 24 18 12 5 18 41 52 69 67
30 49 70 64 67 76 71 65 75 77 98 88 96 95 100 95 97 96 74 83 62 52 50 48 58 69 57 57 56 57 55 45 26 16 32 17 14 13 9 4 34 36 36 54 67
45 74 87 68 65 73 82 99 90 98 81 97 96 96 95 95 97 97 99 80 64 67 61 62 55 62 62 56 63 59 28 30 28 21 21 32 10 28 16 10 37 40 62 68 69

GFSSW_700_rhum_117.txt.gz
RH
58 56 58 58 53 50 46 43 39 37 35 33 32 30 29 28 27 27 27 26 25 26 26 27 29 31 32 36 30 26 23 20 17 15 13 12 13 16 15 23 24 25 25 26 27
61 59 63 59 56 53 50 47 44 40 36 35 33 31 29 28 27 25 24 23 24 24 25 26 27 29 31 35 32 28 27 24 23 21 18 16 15 14 15 22 23 23 24 25 26
64 61 63 63 58 54 52 48 45 44 43 41 38 35 32 29 29 27 23 20 20 20 22 24 24 24 26 29 33 32 30 28 27 26 24 22 20 19 18 16 21 19 22 23 23
74 71 64 61 56 53 49 44 44 44 42 40 39 37 32 28 20 22 19 19 19 18 19 20 21 24 25 27 28 31 33 34 32 31 28 25 25 24 23 22 18 17 16 21 22
68 57 53 47 44 46 46 45 42 38 38 35 34 33 26 26 24 17 15 14 13 16 21 26 26 26 26 27 29 30 32 34 35 35 34 34 31 29 26 26 25 25 25 22 21
47 44 46 46 45 40 29 26 26 24 22 23 26 26 27 25 23 19 13 11 10 11 22 24 24 25 26 26 27 28 30 34 34 36 38 38 35 35 29 28 30 32 30 30 29
42 42 35 25 17 16 14 12 12 12 12 11 10 10 16 23 21 16 10 8 7 9 10 26 30 32 25 23 20 18 22 25 32 37 38 35 35 32 29 31 31 31 32 32 31
32 27 25 25 26 25 25 25 25 22 19 18 17 12 17 18 18 20 13 8 6 6 6 8 8 8 12 18 26 29 32 36 30 29 30 32 34 40 30 28 28 28 24 25 26
33 31 30 31 31 32 30 30 31 32 33 32 32 29 24 20 12 11 13 13 10 5 5 5 16 16 19 21 22 29 34 30 33 35 34 33 30 26 22 22 22 19 17 18 19
27 29 29 28 25 25 25 21 22 20 13 12 14 29 24 19 17 19 21 15 11 7 4 5 13 18 23 24 22 23 22 27 29 28 26 26 26 26 20 17 13 10 10 12 12
28 23 16 6 3 2 2 1 1 1 4 2 3 4 6 12 24 20 18 13 20 26 17 10 11 14 14 11 12 12 18 28 33 29 26 19 13 13 10 8 9 11 11 10 14
7 4 3 2 2 1 1 1 1 2 1 1 2 6 16 20 17 16 21 13 12 15 30 38 23 18 22 24 26 21 18 21 24 24 18 11 8 12 10 12 12 12 14 17 13
3 2 2 2 2 2 2 2 2 2 2 8 37 35 36 39 37 41 36 32 21 18 23 30 22 24 27 28 32 24 21 19 20 17 16 22 18 14 15 16 14 17 13 11 10
3 3 3 3 2 2 2 2 2 2 4 6 42 40 31 34 27 31 38 53 40 25 26 37 31 27 28 26 28 26 16 23 30 30 37 35 28 26 20 20 17 13 10 7 7
3 3 3 3 3 2 2 2 3 3 8 9 33 26 25 13 13 18 36 56 54 50 25 24 27 26 19 14 15 15 19 24 38 42 44 42 41 21 26 18 19 14 9 15 17
4 4 4 4 3 3 3 3 3 4 8 5 8 10 8 6 9 9 30 54 49 64 59 44 21 21 18 19 16 15 37 38 47 49 43 37 29 24 20 23 25 23 20 18 17
5 5 5 4 4 3 3 3 5 6 5 18 14 9 10 10 10 19 22 43 42 52 56 55 34 25 29 36 37 43 41 37 44 49 28 21 36 29 24 35 34 30 31 28 26
6 5 5 4 4 3 3 4 6 13 10 14 14 12 17 18 16 13 23 38 38 38 45 61 54 46 27 24 29 36 43 31 24 27 23 37 31 39 42 43 51 55 54 40 38
6 5 4 3 3 4 5 8 10 19 27 24 17 19 29 23 32 35 18 37 54 46 42 57 67 52 50 46 37 37 48 32 27 40 42 39 37 43 65 62 54 45 57 46 41
6 4 3 3 4 6 9 14 21 28 32 35 47 56 72 56 51 44 30 32 49 51 50 50 46 66 80 67 58 50 44 46 43 48 45 38 40 50 50 43 53 56 52 48 36
5 4 4 5 8 11 16 21 26 33 50 68 81 84 69 82 73 71 44 26 44 36 48 56 62 52 52 78 88 61 54 52 48 55 38 39 37 57 62 55 48 27 31 35 40
4 4 8 12 16 15 19 29 24 26 29 64 79 81 82 90 92 86 65 52 51 44 48 60 60 62 52 59 49 63 73 73 58 71 82 69 51 70 52 51 45 15 7 24 28
4 8 13 16 17 20 28 31 43 58 64 68 76 74 78 90 99 84 71 54 69 62 54 54 83 64 74 74 89 70 59 52 58 63 82 65 40 43 50 40 26 12 5 10 20
6 14 19 22 25 34 54 58 59 65 62 70 84 82 83 80 88 90 79 62 61 62 52 58 63 65 66 70 62 59 54 42 36 41 56 51 42 25 22 22 18 12 5 19 21
11 19 22 25 36 51 54 51 52 68 66 82 87 97 99 97 88 92 88 68 48 62 50 55 64 57 48 54 52 44 39 34 33 38 39 30 26 23 21 18 14 10 4 26 33
16 21 24 33 48 47 61 78 82 89 100 92 96 88 99 99 96 93 97 93 74 60 60 64 66 61 72 66 56 59 49 43 40 41 48 31 22 10 6 6 7 3 3 29 34
17 19 25 51 58 51 72 84 84 98 85 94 97 98 95 94 84 88 87 88 77 75 70 75 69 70 53 57 59 61 23 30 23 24 32 42 9 10 9 24 15 6 9 36 44

GFSSW_700_rhum_123.txt.gz
RH
45 41 39 36 35 38 40 41 41 45 46 47 47 46 46 44 42 39 35 30 27 24 23 23 23 24 27 30 35 36 33 26 21 18 15 14 16 18 16 14 22 23 20 27 31
43 43 42 43 44 43 43 44 43 42 44 44 45 44 43 43 43 43 41 39 36 31 27 24 23 24 25 34 38 37 33 27 23 20 18 17 20 19 22 22 20 23 23 21 24
41 38 36 37 38 40 42 46 47 48 48 47 46 44 43 42 41 32 34 34 34 33 26 24 23 31 34 33 35 37 35 28 25 23 23 20 19 22 22 21 19 18 19 23 29
40 42 40 38 38 44 49 49 48 48 48 46 45 43 42 42 33 22 30 31 28 24 20 18 19 32 35 32 29 33 35 33 30 28 29 27 26 24 24 24 24 22 22 23 30
43 45 47 49 50 51 51 50 49 47 44 42 40 38 34 33 34 33 32 34 34 32 27 19 22 31 34 31 29 30 34 33 33 34 34 32 31 30 29 28 28 30 29 31 34
46 47 52 54 53 52 51 49 44 41 39 37 35 34 33 32 32 30 29 28 26 23 19 17 41 41 38 34 31 30 31 32 34 34 33 36 34 32 30 32 34 34 35 36 39
51 53 54 54 53 49 44 39 34 30 27 25 25 26 28 27 28 29 30 28 22 20 14 24 36 41 37 38 37 34 33 32 31 34 33 36 34 31 30 30 31 34 40 41 41
60 58 54 49 42 36 32 25 14 9 5 3 4 3 5 10 13 24 34 36 36 22 18 10 25 32 35 40 36 34 32 30 28 27 25 28 27 26 25 28 30 34 35 40 40
63 52 43 37 31 21 9 2 1 1 1 1 1 2 35 11 19 23 21 20 17 15 18 14 8 18 32 31 31 31 29 25 24 23 22 25 25 24 23 29 32 31 34 29 26
46 38 31 21 5 2 1 1 1 1 1 1 2 3 37 14 4 7 10 19 19 23 34 13 12 28 27 23 22 22 20 20 20 20 21 26 25 26 25 29 32 26 25 23 22
32 26 7 2 1 1 2 1 1 3 1 2 3 5 12 16 19 33 22 11 14 32 34 40 27 23 23 23 22 21 20 20 19 17 19 20 22 25 23 23 27 25 24 21 18
18 4 2 2 2 2 2 2 2 1 7 5 8 23 32 30 42 29 36 42 38 29 28 28 33 30 22 21 22 21 22 21 19 16 17 22 23 21 19 20 22 22 18 17 20
4 2 2 3 3 3 2 2 2 1 2 22 14 26 25 30 36 25 27 36 42 38 32 27 22 26 28 27 18 16 20 23 22 20 19 20 22 21 16 14 15 17 17 18 25
2 2 3 3 3 3 2 2 2 2 25 27 47 40 18 19 31 18 18 29 31 38 40 36 28 26 24 27 28 29 26 24 26 27 26 24 18 16 15 14 16 16 20 28 37
3 3 4 4 4 3 2 2 2 2 22 26 36 10 19 18 20 15 13 21 27 26 35 32 36 33 34 31 29 31 31 31 32 34 29 21 19 17 18 21 21 22 28 39 61
4 5 5 4 3 3 2 2 2 33 15 29 30 24 20 14 23 19 18 13 12 21 26 26 31 40 41 34 34 39 41 34 39 41 35 31 23 18 20 23 21 26 45 63 67
6 5 4 4 3 3 2 2 37 12 17 31 32 31 20 28 26 23 24 15 11 26 25 17 22 35 32 41 39 36 40 51 46 52 52 29 23 20 20 20 22 31 65 67 68
5 5 4 4 3 3 2 32 20 22 33 41 35 30 24 37 36 36 29 19 14 16 29 28 20 32 58 46 43 39 42 47 57 50 35 30 28 24 21 30 48 57 68 71 69
5 5 4 4 4 3 3 19 32 43 41 45 37 27 24 31 36 35 33 26 21 26 34 35 28 31 58 76 70 49 65 46 46 44 43 34 32 48 52 54 59 57 58 74 76
6 6 5 5 4 4 44 24 46 11 16 50 42 41 39 38 42 41 38 27 27 30 35 40 38 31 31 75 64 90 65 77 86 84 61 30 27 39 52 50 48 44 41 42 48
6 6 6 6 5 18 42 42 36 24 21 40 43 45 44 48 47 46 41 38 37 43 47 41 32 25 29 45 74 84 91 63 70 76 46 39 27 33 56 44 33 32 34 34 36
7 7 7 7 16 30 50 15 15 48 51 74 73 72 64 59 53 47 44 42 46 49 53 42 73 39 32 37 68 89 85 93 96 53 52 40 38 45 47 44 43 41 36 33 24
7 7 8 8 28 31 14 33 27 64 69 68 64 61 60 60 60 50 45 49 56 59 58 85 56 60 36 23 74 88 89 91 96 94 94 65 66 80 83 56 42 30 29 27 21
7 9 9 9 9 20 28 54 63 46 40 68 72 74 81 82 73 81 63 68 91 76 74 81 67 54 45 33 64 67 90 89 73 74 73 90 87 96 89 52 27 25 25 27 27
8 9 9 20 14 35 44 67 84 83 82 85 77 94 99 97 78 79 94 94 72 79 72 73 66 65 50 33 30 31 40 62 74 74 63 43 51 72 46 30 27 26 28 29 29
9 9 9 10 21 59 52 84 78 80 92 90 100 100 100 93 94 94 91 89 97 92 86 78 96 68 51 42 34 28 30 41 48 53 54 46 39 32 31 27 24 26 30 35 35
10 10 10 14 45 90 87 90 90 67 97 99 92 96 89 82 82 60 70 94 98 95 90 91 80 64 58 46 46 32 25 27 30 35 46 37 36 31 28 26 30 40 47 51 45

GFSSW_700_rhum_129.txt.gz
RH
49 46 47 47 44 38 32 30 28 27 26 26 28 29 29 27 26 28 26 26 26 31 35 36 32 26 25 24 27 35 48 43 35 29 24 20 18 18 18 14 14 15 16 18 17
56 52 44 38 39 36 33 31 31 31 32 31 31 31 29 28 27 27 29 26 27 27 30 35 38 36 27 25 27 36 42 40 33 31 28 26 24 23 21 16 14 14 18 21 22
67 62 51 47 43 38 37 34 33 33 33 32 33 33 32 31 30 30 31 26 26 26 26 30 35 36 33 28 27 27 38 33 35 32 29 29 28 26 24 20 18 17 18 20 21
72 64 53 45 48 42 40 37 36 34 34 33 33 33 32 30 28 30 29 27 28 30 29 28 23 22 23 29 32 35 32 35 36 34 31 30 30 29 28 26 20 20 18 20 20
81 71 61 48 44 45 44 41 39 37 34 31 29 28 27 26 26 28 27 26 29 30 30 33 35 33 30 32 32 34 33 32 33 32 32 30 32 31 28 28 25 21 21 22 22
83 78 72 59 52 48 44 42 39 37 34 30 26 23 21 18 24 22 19 19 21 24 27 29 30 31 42 42 40 37 35 33 32 31 29 27 28 30 29 29 28 23 22 23 22
94 85 81 62 56 49 45 44 40 35 28 23 16 9 8 9 12 13 16 10 11 16 21 28 28 34 34 39 40 40 39 37 33 32 31 30 29 28 28 28 25 26 25 23 23
98 91 74 60 56 51 47 42 32 19 11 6 3 2 3 9 9 7 5 2 6 16 15 23 30 25 31 32 33 38 39 37 34 34 33 32 31 30 30 30 31 28 26 24 23
97 84 64 60 58 51 43 29 16 6 2 2 2 2 7 10 6 2 2 4 4 3 4 18 21 36 28 26 27 25 31 32 32 32 33 32 32 29 29 28 28 28 27 26 27
95 80 68 65 55 40 22 9 5 2 2 2 4 4 17 14 6 17 12 25 34 24 14 19 32 43 35 23 23 25 31 30 30 28 27 27 28 28 28 28 26 27 25 24 25
89 75 68 58 40 17 6 2 3 5 7 3 1 1 2 5 12 24 17 31 37 37 37 33 31 32 35 36 28 24 25 26 26 25 24 23 23 22 24 28 27 26 25 28 29
92 72 60 43 14 3 2 2 2 3 2 1 3 4 4 8 17 27 14 7 6 17 26 31 32 29 27 28 31 32 28 25 24 23 23 23 23 26 28 27 27 27 24 24 31
92 61 37 15 2 2 2 2 2 1 1 2 13 11 10 7 10 13 21 11 9 5 11 24 25 28 30 29 27 26 26 28 28 28 26 22 19 19 23 25 24 27 25 24 24
76 41 16 3 4 2 2 2 2 2 1 30 31 19 9 4 16 24 17 15 10 10 8 15 16 22 24 22 28 28 27 28 28 27 26 30 30 23 22 24 23 23 24 23 29
43 14 3 2 3 3 2 2 2 2 81 41 41 32 19 12 9 13 16 14 13 14 15 12 11 10 14 18 19 20 23 24 31 31 33 31 35 32 31 29 29 25 22 22 36
20 3 2 3 3 2 2 2 2 6 68 26 26 18 13 9 15 18 23 22 20 21 19 17 14 12 18 21 23 21 20 24 30 32 40 35 39 37 35 32 32 28 24 21 34
17 3 3 4 2 2 2 2 9 70 18 28 28 29 11 15 23 26 30 28 29 27 24 22 15 12 19 39 40 38 56 58 52 45 48 36 46 41 31 30 30 31 33 25 24
3 3 5 3 3 3 2 2 59 23 27 33 25 7 20 24 24 30 31 33 30 26 24 27 30 25 26 30 30 37 55 95 89 69 50 44 47 41 38 35 34 31 42 31 41
3 6 4 4 4 3 2 43 44 33 30 15 3 25 23 27 31 31 36 34 34 33 33 34 32 29 25 29 31 30 34 63 97 82 94 60 42 40 31 37 40 33 52 38 44
6 5 4 4 4 3 25 45 35 23 7 5 30 30 33 34 38 46 44 38 38 35 41 47 50 43 38 29 23 34 29 55 80 96 89 60 45 40 34 46 49 43 54 53 57
6 5 5 5 4 13 43 37 33 9 9 16 39 38 48 54 51 47 43 43 48 45 45 48 50 50 41 30 43 48 52 64 85 94 75 91 56 98 86 87 75 74 83 68 82
6 6 6 6 21 50 46 36 17 23 33 57 46 63 50 51 55 59 60 63 62 61 52 55 70 65 66 45 56 48 68 81 96 94 89 87 86 83 95 99 94 97 95 80 43
6 10 7 8 36 43 43 28 18 54 57 56 53 52 57 75 75 67 65 62 62 58 62 66 72 87 60 51 47 67 62 64 81 97 88 97 87 89 76 98 99 71 44 31 34
8 8 8 20 32 29 20 38 61 39 29 42 55 66 84 66 73 72 69 71 72 70 73 70 72 89 91 70 52 82 64 41 43 69 66 63 68 67 64 97 98 98 80 52 34
9 8 8 16 12 26 29 39 42 70 62 68 73 85 68 69 69 73 47 26 28 58 81 82 78 90 75 64 60 52 55 43 40 33 52 38 59 59 74 92 96 94 50 55 43
12 14 19 14 17 18 29 64 64 73 52 90 58 51 67 87 91 59 29 35 65 64 83 97 83 79 60 50 66 64 51 44 42 37 26 32 43 50 73 89 68 91 83 54 43
10 10 13 12 18 49 71 70 67 38 55 75 66 68 76 73 37 22 61 78 90 96 90 97 93 92 80 60 59 56 56 48 60 35 40 45 65 66 68 87 84 71 57 47 46

GFSSW_700_rhum_132.txt.gz
RH
60 54 55 54 47 39 39 38 34 32 31 30 29 27 26 24 23 24 23 23 24 25 28 30 34 33 28 26 25 27 39 36 28 26 20 16 18 19 24 24 18 20 19 17 18
71 61 59 60 56 49 41 40 38 35 33 32 31 30 28 26 26 27 24 23 24 25 28 31 36 39 36 32 27 28 31 31 22 23 23 21 20 21 26 24 17 16 16 16 18
78 71 66 60 58 48 46 44 40 40 37 36 33 30 27 25 26 27 28 26 26 25 26 26 29 34 37 36 30 27 30 28 28 26 28 28 23 22 31 31 28 21 31 17 20
78 77 75 70 64 60 49 41 43 41 39 36 33 31 28 26 26 29 29 26 27 28 29 30 26 25 24 27 31 31 30 30 30 30 32 33 30 25 29 32 30 24 27 32 29
82 80 82 78 70 67 60 52 46 41 39 37 34 31 28 25 23 23 23 24 29 29 30 31 31 33 34 30 28 30 29 31 36 35 34 33 34 33 28 30 30 28 24 26 29
88 85 87 85 80 72 64 55 45 42 39 37 32 24 19 15 20 21 20 17 16 18 21 26 28 29 31 34 39 38 36 34 34 33 32 32 32 33 31 30 28 30 26 25 25
92 92 91 89 83 72 60 52 46 42 37 30 20 12 8 6 10 10 10 10 8 12 13 18 24 27 30 31 35 41 39 37 36 33 34 35 31 32 31 29 28 28 28 26 24
89 94 95 94 82 67 57 52 47 38 28 16 9 6 5 8 9 11 8 4 2 3 5 13 27 32 28 29 31 33 35 37 36 36 37 36 33 31 30 29 28 26 28 28 26
80 90 93 98 89 72 60 53 43 30 15 10 7 4 4 12 11 5 3 7 9 10 6 4 14 22 30 34 28 27 27 26 25 26 30 33 33 33 32 31 30 29 28 28 28
76 75 100 96 89 69 56 47 29 12 4 2 3 8 12 16 7 6 11 13 9 13 32 34 26 24 21 34 31 29 24 24 25 26 27 27 27 27 27 27 27 29 28 29 27
100 93 100 98 86 64 51 36 18 12 4 6 5 4 1 2 9 16 11 25 19 11 30 32 31 31 30 28 29 32 37 35 31 29 26 24 24 25 24 23 23 27 29 28 27
97 100 100 100 82 59 41 26 7 4 11 8 2 2 3 3 15 23 14 8 6 3 10 22 27 30 26 26 32 32 33 33 30 29 30 28 27 24 23 23 23 24 24 27 27
98 100 99 94 73 48 31 13 3 2 2 1 3 6 9 9 9 22 10 10 7 4 5 8 3 23 24 23 27 29 22 29 28 28 29 29 28 26 24 23 22 20 22 24 27
100 100 99 87 39 15 7 3 2 2 2 9 14 23 11 6 7 20 23 14 11 10 10 6 12 14 12 14 16 18 21 22 21 21 26 30 35 27 28 24 27 24 21 20 23
99 100 92 61 22 12 4 2 2 2 32 32 34 30 15 8 7 12 15 16 15 12 20 21 21 16 13 15 18 28 32 29 24 22 23 26 36 33 32 30 31 32 24 23 28
100 99 68 19 8 5 3 2 2 2 37 34 36 29 14 10 8 14 13 15 19 26 24 23 20 18 21 25 37 35 33 28 31 34 42 30 36 37 31 32 31 19 20 25 28
99 70 14 3 2 4 3 2 3 30 26 27 25 22 16 12 22 25 24 23 29 33 29 26 19 20 24 23 23 28 33 71 66 49 41 27 36 35 29 27 30 30 29 31 30
79 41 4 3 4 4 3 2 33 37 26 30 27 26 9 26 27 28 30 28 34 35 36 31 31 26 20 34 38 30 38 49 97 73 84 66 56 40 41 40 40 41 36 25 33
57 26 4 4 4 4 3 4 38 32 27 28 17 18 30 32 29 31 30 36 40 39 42 43 40 40 43 36 34 32 33 43 60 57 77 60 51 47 52 48 42 41 36 40 40
44 6 4 5 4 4 3 37 45 33 31 17 5 18 28 34 34 37 36 46 42 46 46 46 50 41 42 44 39 40 37 64 57 86 80 84 91 98 78 86 59 49 56 65 68
17 4 6 4 4 4 34 42 36 33 14 7 11 30 35 35 37 48 40 50 61 58 46 48 48 42 50 48 62 45 54 60 76 72 80 74 77 89 69 75 86 86 100 80 96
5 7 5 5 6 41 50 37 33 23 8 13 20 30 42 46 46 61 65 63 64 71 58 62 62 70 54 40 75 91 93 89 96 90 96 99 88 76 61 57 92 94 97 99 95
7 9 7 10 46 46 45 36 23 10 16 27 43 46 50 76 67 69 68 76 66 60 66 78 77 80 58 51 53 51 77 79 96 96 90 95 52 62 61 55 92 95 95 98 93
9 12 12 32 40 30 28 29 17 23 36 35 34 64 72 71 70 62 65 63 43 33 60 88 83 85 80 74 71 71 59 61 60 84 69 56 42 58 57 68 60 81 94 97 77
14 10 9 28 28 27 16 14 18 26 30 58 73 78 71 51 56 57 42 20 51 71 73 86 81 75 79 68 67 73 66 56 55 50 58 34 42 70 56 65 90 96 97 88 92
15 9 12 22 26 18 15 24 41 49 32 59 77 73 65 59 55 31 24 69 71 81 86 73 89 92 74 58 58 57 63 55 60 54 54 51 80 88 82 79 76 92 94 85 94
20 9 17 14 14 14 19 32 52 57 34 56 46 46 47 37 20 22 65 81 72 78 83 80 84 90 82 63 72 82 85 91 97 96 94 85 100 100 77 68 74 70 86 74 58

GFSSW_700_rhum_135.txt.gz
RH
61 62 60 56 54 52 51 45 38 36 36 36 33 32 31 29 28 27 25 23 24 24 24 26 29 33 34 33 28 26 30 30 24 24 20 19 21 21 25 23 23 25 22 22 22
67 63 62 61 59 57 52 48 45 43 39 39 38 36 33 29 26 27 26 25 25 25 26 26 29 31 36 34 30 29 28 30 26 25 26 22 24 21 23 22 21 25 21 18 20
71 70 69 68 64 63 57 53 48 42 41 42 39 37 32 30 28 26 25 25 26 26 27 28 30 32 33 37 36 31 30 29 29 28 29 29 24 23 28 24 22 25 27 46 40
79 78 75 72 68 66 62 59 55 50 48 43 40 36 33 31 28 27 25 25 26 27 27 27 26 26 26 27 31 32 33 32 31 30 30 30 29 24 23 24 24 27 29 30 62
86 88 84 82 77 75 73 65 59 54 51 43 40 35 33 29 26 24 23 24 26 27 29 30 31 32 31 28 27 25 27 29 30 30 31 32 31 29 26 27 26 25 29 29 31
92 88 87 86 83 79 79 71 61 55 50 44 38 33 29 21 18 18 19 19 19 17 18 20 24 29 29 29 31 33 33 33 32 31 31 30 30 33 31 27 28 30 29 29 29
92 87 79 78 82 79 82 72 61 55 50 43 35 31 24 10 10 10 10 10 9 8 8 18 19 23 26 26 29 31 31 32 37 37 38 36 32 31 30 30 29 30 31 29 28
87 76 68 73 79 79 89 82 68 56 48 40 32 19 8 8 10 11 11 10 5 3 2 7 29 29 31 26 25 27 29 31 30 30 32 35 27 30 33 34 32 31 30 30 28
63 71 86 82 90 84 90 84 65 51 44 35 27 12 7 10 13 13 9 10 12 9 8 6 14 17 17 27 32 26 26 27 26 23 23 25 24 27 31 33 33 32 32 31 29
76 73 77 93 98 100 94 80 60 49 39 27 16 11 12 18 17 11 10 9 12 21 26 29 30 24 21 27 29 30 30 32 34 33 31 31 25 23 27 28 30 30 31 31 31
83 94 88 91 97 98 96 77 53 37 31 15 9 7 10 5 3 7 6 10 18 19 15 28 24 22 30 33 25 29 33 34 32 31 34 32 26 19 23 25 26 25 24 26 30
94 95 97 88 90 91 98 63 42 18 20 12 6 6 2 2 7 22 8 11 8 9 6 6 11 26 30 29 22 24 26 28 26 30 26 28 27 19 21 25 26 25 24 24 23
100 100 92 93 94 95 94 46 7 4 6 5 3 2 2 5 8 25 17 13 9 8 8 7 4 7 14 17 16 20 18 20 24 24 24 26 26 22 20 24 26 24 25 25 24
100 100 100 98 98 92 83 36 5 2 4 5 8 8 9 15 12 14 12 13 11 12 11 7 16 14 12 12 14 18 24 28 30 29 36 28 27 15 18 17 22 22 20 24 24
100 99 100 100 98 91 48 9 3 2 13 23 21 25 18 7 12 13 11 8 12 14 18 19 18 15 18 21 22 34 30 34 31 32 32 16 34 18 17 17 24 26 24 16 13
100 99 100 100 99 84 18 5 3 4 22 35 38 32 23 16 9 9 9 12 16 19 23 25 24 20 25 26 26 29 27 26 24 26 46 23 44 31 23 33 33 34 33 29 23
99 99 100 100 88 49 6 6 3 31 19 27 36 31 22 19 21 24 23 23 26 23 27 24 26 29 29 26 22 20 21 47 53 65 46 49 52 53 50 49 57 47 37 30 23
99 100 98 99 73 6 5 4 14 21 28 27 26 26 25 20 26 28 27 29 30 34 37 39 37 32 28 33 36 34 36 40 77 58 57 47 54 30 50 54 61 67 52 42 26
99 99 99 59 12 4 5 4 8 40 30 28 28 23 23 28 28 30 30 35 42 47 42 40 44 40 31 39 44 41 44 42 50 47 70 51 42 46 62 66 64 73 61 50 37
100 100 72 30 4 5 10 11 25 33 29 29 21 14 30 33 32 31 33 45 51 54 49 48 52 48 37 29 36 49 57 61 46 87 73 48 50 70 70 64 59 60 74 82 52
98 77 34 9 14 5 8 23 26 36 32 22 10 12 27 33 36 37 40 44 59 45 46 41 52 41 33 38 55 61 80 82 67 63 73 79 72 79 74 70 73 98 86 73 96
96 70 56 16 6 4 8 30 31 39 31 9 10 19 27 32 34 26 46 61 63 60 48 45 57 70 41 52 59 75 69 96 96 82 95 96 75 58 63 64 68 98 99 84 97
86 39 12 6 5 6 34 37 34 33 19 16 18 26 28 22 28 60 64 69 59 52 46 40 73 80 58 53 70 75 75 84 95 95 88 94 62 64 68 61 87 97 94 76 96
68 34 13 6 22 11 35 41 34 18 15 22 20 21 22 53 43 54 49 52 31 32 43 60 70 78 80 67 74 84 68 67 84 76 73 68 58 73 80 96 97 94 97 97 94
43 20 11 12 61 63 50 37 33 14 21 21 25 37 49 35 37 42 31 21 47 67 83 95 89 79 69 69 67 72 94 71 63 72 82 65 82 91 100 100 97 96 97 97 97
40 23 11 17 46 56 48 24 16 15 16 22 36 56 25 32 31 23 19 66 74 89 89 91 84 86 64 51 64 85 88 91 85 67 82 98 92 100 100 100 96 88 96 93 87
29 13 18 36 45 43 23 13 16 22 21 33 35 36 24 26 14 15 48 73 73 71 75 86 93 97 87 72 76 96 86 93 98 94 98 100 96 86 98 94 86 98 100 86 66

GFSSW_700_rhum_138.txt.gz
RH
64 64 62 62 61 59 53 51 49 46 41 38 36 36 36 34 33 29 26 26 26 25 26 26 28 29 32 34 33 30 30 29 26 26 22 22 23 22 24 25 23 20 25 26 21
68 65 68 65 62 63 58 55 51 48 45 42 40 40 38 36 33 29 26 25 25 26 25 25 27 28 31 32 33 32 30 29 28 27 27 25 25 23 24 24 21 22 24 29 22
68 68 68 72 66 62 62 61 56 54 52 49 45 43 40 38 33 29 26 26 25 25 26 26 27 29 31 33 33 33 31 30 30 30 30 30 26 26 26 24 23 20 20 27 29
77 76 72 70 71 67 65 64 63 55 52 51 49 45 41 37 32 28 26 25 26 28 29 28 27 27 27 28 28 30 32 34 33 34 33 33 32 27 27 26 26 24 21 23 30
86 82 78 75 74 71 66 65 64 62 55 51 49 46 42 36 32 29 26 24 24 27 29 29 29 30 29 28 27 27 27 27 27 28 29 29 30 30 27 28 29 28 26 23 28
97 87 83 83 84 75 67 69 68 63 58 52 49 47 39 33 26 22 18 18 21 23 24 22 22 25 28 27 27 27 29 29 31 31 32 32 31 34 30 25 29 30 29 28 27
93 92 89 91 81 78 73 71 72 65 58 56 51 44 37 27 24 15 12 12 12 12 12 10 13 16 21 19 22 25 24 25 26 26 26 27 28 27 28 29 29 30 29 29 30
94 83 72 82 83 76 78 79 78 70 60 56 47 40 27 21 13 12 10 9 10 8 4 3 4 16 24 26 25 24 25 25 24 26 26 25 23 24 26 26 27 28 30 29 29
92 79 80 72 84 85 95 97 85 80 65 53 45 35 20 16 11 10 10 10 7 6 8 8 7 10 20 17 23 24 27 31 31 25 28 28 28 30 23 23 28 29 30 31 32
98 86 73 76 89 98 99 98 98 83 63 50 40 26 18 20 18 16 13 9 12 26 30 25 19 18 23 30 34 32 28 28 32 28 24 25 13 24 27 26 23 24 26 29 32
100 93 79 64 77 90 100 83 90 82 63 39 24 15 14 16 19 17 11 7 8 22 28 29 20 25 31 34 34 31 25 23 28 28 27 21 14 16 17 18 22 23 25 27 27
100 100 96 96 98 95 90 82 80 83 50 24 13 13 7 9 5 10 6 11 12 12 15 8 4 13 20 27 26 26 20 20 22 25 28 24 12 9 14 15 14 15 18 23 25
100 100 100 98 100 100 90 83 88 78 37 27 13 10 15 8 5 20 14 14 18 12 9 7 8 8 13 15 17 17 16 20 28 27 23 19 11 8 14 13 15 18 18 19 21
100 100 100 100 100 99 91 91 81 26 12 15 12 7 8 6 12 14 18 16 17 12 10 8 13 13 16 16 15 16 19 25 26 29 33 31 36 3 11 23 23 21 20 13 12
100 100 100 100 100 99 98 87 46 8 15 23 18 24 22 23 14 14 13 14 11 12 11 16 13 14 17 20 24 27 27 28 28 26 25 24 36 11 15 39 40 43 41 36 32
99 100 99 100 100 98 97 43 7 6 16 33 35 29 30 17 15 14 11 9 17 17 20 22 24 22 27 28 29 26 24 21 18 20 52 44 50 42 46 56 48 44 47 50 48
100 99 99 98 98 100 97 20 7 11 21 29 38 35 25 22 19 14 14 20 20 19 22 21 25 31 30 26 23 22 15 35 40 61 43 43 38 42 33 29 25 51 65 57 38
96 100 98 97 99 100 94 14 7 15 18 26 32 33 28 22 20 26 27 28 30 31 31 32 35 32 34 27 29 34 44 43 63 56 52 41 38 24 24 34 67 63 58 64 72
100 100 99 99 99 97 46 11 8 14 19 25 28 29 25 22 23 27 29 37 44 44 32 39 43 38 23 20 29 42 42 44 57 49 64 42 36 36 55 58 50 48 40 41 70
100 99 99 98 97 88 16 10 5 22 29 29 27 26 21 21 23 29 32 49 51 49 46 50 42 45 30 33 34 45 67 76 64 64 76 47 40 89 60 54 57 61 83 74 75
100 98 98 97 92 35 14 8 13 14 35 30 28 22 18 21 30 34 37 55 50 51 40 36 50 38 39 43 46 59 75 80 95 61 83 74 60 68 64 64 69 93 99 92 98
100 99 97 78 40 22 15 15 16 18 33 28 22 15 14 17 26 28 29 35 56 39 35 32 34 46 41 47 51 72 77 73 90 88 92 95 76 72 58 61 83 98 98 98 100
99 98 95 84 26 9 19 24 22 20 33 34 21 15 16 23 23 28 42 50 44 32 27 27 48 54 52 54 56 63 63 84 98 97 88 94 63 58 66 83 97 97 96 98 98
99 96 87 42 17 18 15 24 24 35 33 26 15 16 19 20 24 44 52 46 31 21 32 45 57 59 63 50 62 71 70 84 96 98 78 80 79 73 73 99 97 98 95 93 97
99 93 81 66 36 21 13 16 26 34 30 17 20 18 11 24 22 32 37 24 27 53 72 76 73 63 47 59 74 80 93 85 86 98 100 95 98 100 94 99 98 98 99 96 95
93 83 72 39 29 29 38 38 36 32 19 16 18 17 32 11 20 30 16 42 59 72 77 84 79 79 58 63 62 79 88 90 96 100 94 97 100 93 90 97 88 82 86 96 96
98 82 70 34 26 54 38 45 38 33 18 22 20 26 15 26 17 13 18 54 59 65 70 77 87 93 89 81 84 94 98 85 94 98 97 96 99 82 78 76 79 75 81 90 81

GFSSW_700_rhum_141.txt.gz
RH
69 67 65 62 61 57 57 55 52 48 45 44 41 37 36 37 37 34 31 28 26 25 26 24 25 26 28 30 33 33 31 30 28 27 23 24 25 24 26 24 23 22 23 23 22
76 75 69 66 66 64 60 58 56 52 49 46 45 42 38 39 38 35 31 30 27 25 25 26 26 27 29 29 31 32 32 30 28 28 27 25 25 25 26 26 24 24 24 24 22
79 76 75 69 66 65 62 60 57 56 52 48 48 46 44 41 38 34 31 29 26 25 24 25 26 27 30 33 32 32 31 30 30 30 30 28 24 27 26 27 26 25 24 24 25
87 85 78 72 74 70 68 64 61 56 54 53 50 47 44 43 37 33 32 29 26 26 26 27 28 28 28 28 27 27 27 28 28 29 28 28 28 24 27 28 29 29 29 27 24
94 89 88 83 80 75 71 70 65 61 59 56 56 50 47 43 41 38 33 29 26 24 24 25 26 26 27 27 28 28 28 28 28 28 28 28 27 28 25 24 27 28 29 31 29
86 87 92 85 85 83 74 73 69 61 60 60 58 54 48 44 36 30 27 21 18 19 21 22 21 20 19 20 24 26 28 27 26 26 26 26 26 28 22 25 27 27 29 30 30
99 92 96 92 86 86 82 77 70 64 64 61 58 55 50 40 36 29 22 15 14 16 17 14 12 11 11 12 15 17 18 18 18 19 21 21 23 23 26 24 22 29 30 31 32
98 100 100 96 83 76 83 85 78 76 70 67 60 54 46 38 30 23 15 11 10 10 10 8 5 4 4 12 16 13 11 12 14 15 17 23 26 22 20 18 19 20 21 26 31
100 100 100 88 74 71 79 85 79 82 84 80 64 53 41 32 22 18 12 10 10 9 7 6 6 6 8 19 15 15 19 21 19 18 21 22 30 21 26 22 20 19 19 22 25
100 100 93 90 72 85 88 81 78 70 70 78 64 49 34 27 22 18 15 14 11 8 9 11 16 20 20 24 29 29 30 28 26 21 21 19 19 20 17 14 14 16 16 19 20
100 99 98 79 72 70 89 93 87 75 61 76 56 20 24 17 19 20 18 15 11 15 20 23 22 26 27 28 31 32 31 29 27 23 21 11 17 13 10 9 7 8 11 14 15
100 100 99 100 100 99 98 98 92 76 67 67 64 28 17 17 20 20 14 12 11 14 19 22 15 8 11 17 21 21 18 20 22 21 18 10 7 5 8 11 10 7 9 9 9
90 100 100 99 99 99 99 100 96 84 76 62 61 45 14 11 11 14 13 14 18 20 14 9 9 10 9 12 14 13 14 17 22 20 13 17 9 18 14 18 28 25 17 12 10
100 99 99 100 100 100 100 100 98 93 59 39 34 25 15 16 15 14 20 22 24 20 15 11 13 15 16 16 14 14 18 23 22 19 22 23 14 13 22 26 33 38 39 34 34
94 97 100 99 100 100 99 99 100 68 34 36 22 23 17 15 16 16 18 18 16 14 11 13 12 15 16 17 18 21 20 20 19 18 18 25 32 17 19 42 32 28 22 17 13
90 88 90 87 100 99 99 100 98 45 19 38 28 25 22 27 16 16 14 13 13 12 14 18 20 19 19 23 26 26 23 16 14 16 29 54 42 32 39 36 34 55 59 55 53
90 86 97 93 100 100 99 98 70 29 36 34 36 30 31 25 14 10 10 14 16 20 21 24 25 27 27 27 22 18 10 16 22 36 24 46 32 29 24 24 52 59 52 53 49
95 100 100 96 99 99 99 88 49 34 22 29 37 33 26 21 19 16 19 20 23 23 25 26 35 30 33 23 21 30 26 30 35 35 28 38 27 22 32 43 57 47 47 56 82
97 100 100 100 98 100 98 86 70 31 19 25 36 36 30 24 22 23 24 29 28 28 22 28 33 30 24 20 23 39 46 45 54 52 49 37 39 34 54 47 37 46 71 73 73
88 88 99 99 91 98 93 70 44 16 19 24 25 30 29 26 24 21 23 33 34 35 29 29 24 22 23 25 36 39 60 70 66 62 49 35 42 50 58 45 51 55 99 96 100
98 87 97 99 98 99 89 74 26 17 30 28 24 22 26 25 23 20 30 40 49 42 34 30 27 30 34 39 50 64 73 76 80 78 58 66 46 79 78 63 79 91 99 93 97
96 95 98 99 96 99 96 66 33 12 36 31 29 26 22 19 18 26 29 32 38 37 30 28 20 21 40 46 50 54 64 80 89 85 93 87 58 70 72 67 88 93 95 95 96
98 99 98 98 94 93 91 67 32 22 21 29 27 26 23 19 22 26 28 33 37 28 28 25 28 37 61 61 59 63 67 84 96 96 89 83 53 60 58 78 100 92 95 83 96
97 99 97 98 95 92 74 55 41 25 21 25 29 25 21 18 16 20 32 44 31 23 19 26 34 34 39 44 54 74 83 81 98 99 77 78 75 99 73 89 89 91 88 92 96
96 98 84 77 88 57 40 35 33 29 28 30 31 26 18 15 21 31 37 32 24 27 41 55 51 56 55 51 62 64 84 82 89 95 98 80 99 100 99 100 92 90 97 86 84
98 96 100 85 83 83 51 37 22 27 25 24 25 21 16 11 12 12 21 20 32 49 71 63 78 72 56 79 79 74 78 80 91 94 95 91 94 96 96 93 87 76 79 86 93
97 95 98 88 90 90 48 42 35 30 30 28 22 15 20 17 17 25 18 29 38 57 57 68 75 80 84 79 78 84 86 91 78 69 80 100 97 88 82 84 94 91 82 94 98

GFSSW_700_rhum_144.txt.gz
RH
66 67 64 61 58 57 56 53 51 49 48 46 42 40 40 36 34 33 33 32 30 28 26 25 25 25 25 26 27 30 33 27 26 29 26 33 29 35 28 26 33 25 24 21 20
65 66 68 67 64 62 60 60 56 52 51 49 46 43 42 40 38 36 33 32 32 30 27 25 26 27 27 27 27 30 32 28 30 33 32 30 34 36 36 33 27 26 26 26 22
73 74 74 74 68 64 62 63 61 58 55 52 50 47 44 43 41 38 33 30 28 27 25 26 26 26 28 28 28 34 34 33 32 33 31 27 26 30 31 31 32 31 28 28 27
81 76 76 79 82 74 68 68 65 61 59 55 52 48 48 45 42 36 34 36 33 30 27 25 26 27 27 28 28 28 26 26 24 23 23 24 24 23 29 32 26 28 27 27 29
92 87 80 80 86 82 80 75 71 65 60 57 53 53 51 51 45 42 40 36 32 28 26 26 26 26 28 26 26 26 32 27 26 24 24 24 24 24 22 22 24 25 26 27 27
100 96 91 86 84 80 78 74 74 72 65 60 58 55 56 53 43 40 36 29 26 21 19 19 21 22 22 21 20 23 21 21 21 20 19 19 19 19 24 17 20 20 22 24 26
100 100 100 92 91 89 82 74 76 76 69 64 59 60 58 53 47 41 35 29 22 16 16 17 17 13 13 14 12 14 16 27 27 17 20 16 18 26 30 25 21 27 28 28 30
97 98 100 100 99 90 78 74 72 72 70 67 64 67 64 53 46 37 31 24 14 11 11 11 10 8 6 6 8 12 18 17 26 23 26 21 17 25 24 18 15 14 19 21 22
100 99 98 99 99 90 74 67 65 69 67 63 62 70 68 54 44 33 26 19 13 11 10 9 8 8 6 18 21 22 13 19 21 22 23 21 20 20 23 13 13 15 17 23 26
99 98 99 100 97 77 68 72 70 77 68 66 59 76 62 45 34 24 18 15 13 13 12 12 13 24 27 25 15 21 23 21 22 20 25 23 20 21 20 19 17 21 27 8 11
100 98 100 98 92 84 78 70 81 89 82 70 66 58 32 32 25 24 20 18 16 16 27 18 26 25 28 24 23 24 22 18 16 22 25 19 15 14 16 17 25 26 21 10 10
98 100 100 95 95 84 94 89 96 94 82 78 69 64 58 30 20 21 22 23 18 18 14 20 18 20 13 11 13 16 16 15 17 19 16 16 18 17 22 26 35 32 34 26 13
91 100 91 100 100 100 99 100 98 100 87 75 73 62 59 27 20 18 18 17 17 18 18 15 20 8 7 14 15 20 22 20 20 18 14 18 7 17 39 46 45 46 34 23 18
97 67 69 97 90 96 100 98 100 99 93 63 57 44 47 32 18 12 11 14 17 21 19 18 13 10 11 18 9 16 23 16 21 17 10 14 10 9 32 40 49 43 20 23 20
78 100 100 99 100 95 98 100 100 99 85 50 36 34 24 21 27 21 16 14 22 20 16 22 15 12 24 25 12 26 15 16 20 17 16 14 20 17 45 50 45 61 74 80 42
100 100 100 99 100 100 97 98 99 96 83 50 30 28 26 24 19 19 16 14 15 15 11 19 12 16 15 13 14 17 19 21 18 24 15 28 27 11 28 32 54 75 92 98 58
100 100 100 98 99 100 100 99 93 93 62 43 36 28 28 23 16 17 17 18 19 23 26 23 25 17 17 30 26 26 18 9 10 19 14 35 23 15 23 50 83 95 84 91 79
99 98 99 97 93 100 100 100 98 74 46 40 36 33 32 27 19 14 17 23 12 12 23 21 29 32 24 30 26 31 25 15 21 12 15 20 19 15 33 74 90 98 80 93 87
97 93 98 88 96 99 100 98 87 60 47 34 35 34 36 30 26 22 32 32 23 16 23 26 27 28 25 22 20 38 29 44 37 37 33 18 23 24 50 82 90 79 59 88 90
98 96 96 97 98 92 99 96 88 73 54 34 36 33 32 32 29 31 29 30 21 18 16 32 26 39 47 36 37 38 49 53 54 58 36 21 29 31 71 96 94 55 66 83 79
92 98 100 100 99 99 99 98 84 40 29 34 35 36 35 36 31 33 41 28 20 20 22 20 21 40 36 35 36 64 59 60 61 52 37 34 30 93 100 99 57 63 67 74 71
99 98 97 100 98 98 89 88 83 71 28 28 29 25 28 34 36 42 47 45 24 27 32 28 39 28 32 55 50 54 63 83 62 60 64 74 44 63 100 100 96 87 63 68 66
94 97 97 98 98 98 86 83 81 53 28 32 28 25 22 23 36 51 38 27 28 26 52 21 42 34 49 61 59 64 71 79 85 75 67 62 39 74 94 97 93 99 74 70 64
99 97 97 96 99 93 79 87 83 54 28 36 31 28 27 24 22 39 28 29 32 27 21 21 43 32 22 40 54 67 66 69 72 70 50 45 45 58 79 86 100 98 83 74 70
100 98 81 90 95 98 99 87 86 78 62 42 37 27 24 23 27 29 22 25 34 25 19 41 60 53 55 59 65 64 62 66 71 66 67 56 59 81 98 97 98 97 83 72 69
100 97 93 79 90 95 99 88 88 82 77 60 37 29 27 24 22 21 15 23 28 19 33 46 91 68 57 78 82 79 78 80 78 74 72 74 74 94 100 100 92 85 78 72 68
99 98 92 95 89 88 74 79 66 63 47 34 32 35 28 22 15 12 26 27 17 25 48 64 88 85 56 76 73 71 80 82 83 67 68 91 98 100 100 100 84 85 84 79 75

GFSSW_700_rhum_147.txt.gz
RH
62 64 62 62 59 57 56 54 50 48 45 44 41 40 38 37 37 37 34 33 32 31 30 28 26 26 26 31 31 34 30 23 20 19 21 28 31 31 34 34 33 32 33 32 32
64 63 63 63 61 60 57 56 55 52 52 49 45 44 43 40 37 37 36 35 33 31 31 29 27 26 27 29 36 38 28 24 23 27 28 30 32 31 31 29 27 28 30 32 33
75 69 68 72 74 71 68 64 57 56 54 52 50 46 44 44 44 36 36 34 30 28 27 26 26 26 30 29 30 33 31 27 27 31 32 30 28 25 25 25 25 28 32 33 36
83 80 78 78 80 78 74 71 70 64 63 58 54 51 46 47 43 35 37 34 34 35 33 30 27 28 32 30 29 30 29 29 28 28 28 28 27 26 26 25 27 28 31 31 30
88 86 87 86 88 85 82 77 78 72 68 64 61 56 51 50 50 44 44 42 39 35 32 29 26 31 31 29 31 33 30 28 30 28 26 26 24 24 23 23 26 22 19 19 23
90 79 79 91 94 94 92 83 78 74 67 67 66 62 56 54 46 44 44 41 37 32 27 24 26 26 23 28 27 26 27 24 24 23 23 24 21 21 22 27 25 26 28 28 30
89 92 88 90 96 88 93 88 88 82 70 63 66 66 60 59 53 49 46 42 34 28 23 24 18 20 32 30 30 22 22 23 21 22 20 21 15 18 26 25 25 23 24 23 24
99 87 100 93 95 97 98 83 86 78 70 65 67 65 62 56 59 54 48 41 34 24 18 15 14 12 15 24 17 25 22 17 19 20 20 20 13 21 24 21 20 18 18 17 22
93 93 100 100 98 100 100 88 85 71 67 67 64 58 63 49 59 57 46 33 32 18 13 13 12 19 27 24 22 19 18 15 16 19 19 18 17 14 16 19 17 16 17 27 38
85 97 100 98 94 96 96 98 96 73 69 74 72 61 56 54 52 45 43 27 19 16 14 14 25 29 26 21 18 20 18 19 17 15 17 17 14 13 11 12 13 17 32 41 45
88 99 98 100 99 93 100 98 93 84 78 77 66 59 49 45 46 40 35 22 18 30 29 33 27 23 24 24 22 19 15 13 12 13 17 13 12 10 15 21 32 37 39 44 50
100 99 99 98 99 100 100 100 95 97 91 82 80 71 67 62 55 29 24 22 22 23 24 22 18 22 25 21 13 11 12 12 13 13 14 11 11 10 23 38 39 43 48 51 58
99 99 99 100 100 100 100 100 98 94 98 80 72 77 74 64 48 28 28 24 24 22 19 17 19 18 12 15 15 12 12 17 15 14 12 10 10 17 30 37 40 44 54 60 77
100 100 100 97 94 99 76 96 94 100 100 70 57 51 57 59 36 24 26 24 22 19 18 17 17 16 16 15 17 13 22 21 16 14 9 10 9 10 23 29 35 42 62 92 47
98 99 99 99 99 84 79 77 99 100 98 64 52 49 43 43 30 31 25 19 23 22 22 20 22 20 17 17 20 12 20 17 16 16 15 12 11 12 26 34 33 66 98 51 30
99 99 100 95 99 90 100 100 97 100 94 60 42 43 41 30 29 28 25 22 23 22 24 22 23 19 20 19 8 10 11 18 19 17 18 16 16 10 20 32 56 96 64 49 58
80 99 99 80 88 100 99 99 98 99 70 50 43 39 32 27 28 28 29 25 22 24 25 22 22 24 8 21 29 25 20 13 13 16 17 23 20 14 23 55 84 94 58 38 54
78 98 100 98 98 100 100 99 99 60 58 42 39 36 31 27 29 26 25 24 22 22 19 23 25 28 29 24 21 21 20 15 18 15 14 19 15 16 26 65 90 92 51 47 53
89 88 97 99 100 98 99 100 89 68 58 44 37 34 31 27 28 30 27 25 26 24 17 17 18 32 32 31 20 29 24 35 28 22 26 16 12 17 25 79 89 63 44 30 44
98 84 85 89 99 99 99 89 89 79 59 40 38 36 33 32 33 31 28 27 26 31 29 27 26 33 38 32 31 24 36 39 44 52 30 16 16 20 60 89 92 72 39 31 41
75 99 99 97 99 100 98 97 95 75 65 42 44 40 36 35 34 34 32 40 37 40 14 29 24 30 34 32 22 45 37 36 35 34 31 27 28 70 79 88 57 44 39 43 44
98 99 99 99 98 98 91 87 88 58 66 60 47 44 41 37 33 32 31 40 45 44 35 33 29 24 31 27 37 32 46 52 54 40 46 44 37 53 78 95 70 53 48 64 83
99 89 98 98 97 98 100 99 85 62 52 52 53 57 48 46 37 33 39 52 44 41 37 43 26 22 29 41 45 38 43 55 69 80 48 50 34 75 75 95 100 93 57 60 64
95 97 98 96 97 95 99 99 73 56 54 49 46 49 47 39 43 39 57 53 41 48 40 38 36 27 20 34 40 43 42 45 48 50 39 35 34 36 75 95 63 81 64 68 69
99 97 94 73 96 95 98 97 79 66 56 53 53 49 45 47 56 57 72 56 32 32 21 48 48 35 29 38 41 39 43 42 42 42 42 38 36 48 95 99 90 100 83 74 69
98 97 97 100 86 99 98 95 94 72 68 65 57 46 50 56 52 59 51 37 41 43 56 57 70 57 54 40 37 39 39 39 41 42 43 44 47 96 96 96 100 100 76 76 74
99 98 80 94 95 98 89 95 97 81 80 75 51 41 51 57 52 51 56 59 62 63 75 79 68 63 46 47 49 48 47 47 51 63 71 69 70 94 96 100 95 78 79 82 83